[{"header": {"dx": 0.06612293990616946, "dy": 0.0552356325346848, "nx": 98, "ny": 59, "la1": 35.046912555036876, "la2": 31.78801023549047, "lo1": -121.43107172385933, "lo2": -114.95102361305473, "refTime": "2026040708", "parameterCategory": 1, "parameterNumber": 2}, "data": [7.26, 7.26, 7.26, 7.26, 7.26, 7.27, 6.9, 6.93, 6.58, 5.94, 4.87, 3.79, 1.27, 0.0, 1.79, 0.89, 0.6, 0.0, -2.15, -2.84, -3.22, -2.8, -2.12, -1.9, 0.0, 0.0, 2.0, 4.92, 4.47, 5.09, 5.58, 4.84, 3.79, 3.58, 4.15, 4.41, 4.47, 4.92, 4.41, 3.97, 3.53, 4.41, 6.14, 7.63, 9.2, 11.26, 13.51, 14.88, 15.13, 10.55, 5.2, 1.84, 2.35, 3.09, 3.15, 3.63, 5.63, 7.06, 7.81, 8.21, 8.58, 8.37, 7.47, 5.95, 4.74, 5.72, 6.52, 7.81, 8.58, 10.6, 11.54, 11.21, 10.47, 10.18, 9.74, 9.21, 10.08, 11.28, 12.81, 11.87, -9.75, -7.15, -5.81, -4.24, -2.98, -2.8, 3.13, 2.68, 3.58, 4.66, 7.03, 8.06, 8.65, 9.66, 10.01, 10.41, 9.42, 5.75, 6.87, 7.26, 7.26, 7.26, 6.98, 6.98, 6.63, 6.63, 6.27, 5.9, 5.0, 3.22, 1.8, 1.2, 2.53, 1.9, 0.95, 0.0, -1.6, -3.16, -3.48, -3.22, -2.23, -2.21, 0.0, 0.0, 4.02, 3.58, -0.0, -0.0, 4.02, 3.58, 2.21, 2.21, 3.04, 3.53, 4.47, 4.92, 4.87, 4.24, 4.24, 5.81, 7.44, 8.65, 10.12, 12.39, 14.03, 14.42, 12.78, 4.66, 0.96, 1.63, 2.26, 2.6, 2.82, 4.12, 5.89, 7.41, 8.43, 8.8, 9.13, 8.48, 7.2, 5.59, 5.06, 5.93, 7.07, 7.76, 8.58, 9.36, 10.85, 11.03, 10.91, 10.18, 8.82, 8.6, 9.66, 11.28, 12.81, 11.87, -9.75, -7.15, -5.81, -4.24, -2.98, -2.8, 3.13, 2.68, 3.58, 4.66, 7.03, 8.06, 8.65, 9.66, 10.01, 10.41, 9.42, 5.75, 6.87, 6.87, 6.98, 6.98, 6.98, 6.98, 6.34, 6.63, 5.98, 5.6, 4.96, 4.14, 1.8, 0.99, 1.9, 2.0, 2.23, 1.24, 0.0, -2.07, -3.15, -4.74, -3.16, -2.15, 0.0, 4.47, 4.02, 2.21, -0.0, -2.68, -1.9, -1.58, -1.9, 2.68, 2.54, 3.58, 4.47, 5.36, 6.21, 5.75, 6.44, 7.96, 9.8, 11.19, 12.02, 12.67, 13.41, 12.13, 5.49, 1.03, 1.55, 2.18, 2.4, 3.09, 3.47, 5.24, 6.39, 7.81, 8.8, 8.95, 9.24, 7.76, 6.32, 6.18, 5.69, 6.01, 7.13, 8.23, 8.47, 9.43, 10.43, 11.36, 11.64, 10.62, 8.05, 7.15, 8.9, 12.74, 13.76, 13.41, -7.27, -8.05, -7.21, -5.6, -3.95, -3.13, 3.13, 3.13, 3.95, 6.4, 9.27, 9.3, 8.6, 8.6, 9.4, 9.6, 6.07, 4.43, 6.61, 6.61, 6.61, 6.61, 6.61, 6.34, 6.34, 6.34, 5.98, 5.72, 5.34, 4.5, 2.99, 1.8, 1.98, 2.53, 2.53, 3.58, 1.88, 0.0, -2.48, -3.48, -4.47, -3.43, -2.51, -3.2, 3.13, -0.0, 2.53, 3.13, -1.2, -2.07, -2.79, -2.23, 2.53, 4.0, 5.4, 7.21, 7.82, 8.03, 9.23, 10.98, 11.53, 11.62, 11.29, 11.7, 10.75, 6.11, 4.02, 2.4, 2.82, 2.9, 3.0, 3.79, 4.56, 6.01, 7.44, 8.05, 9.03, 9.36, 8.72, 7.2, 5.84, 4.95, 5.89, 6.64, 6.95, 7.64, 8.6, 9.56, 11.66, 13.37, 14.18, 12.27, 8.94, 5.51, 6.55, 11.6, 15.2, 13.41, 0.0, -5.51, -6.94, -5.7, -3.53, -3.58, 3.58, 3.9, 5.6, 9.05, 10.66, 9.4, 8.31, 8.73, 8.33, 4.47, 4.47, 6.71, 6.61, 6.61, 6.61, 6.61, 6.34, 6.34, 6.34, 6.34, 5.7, 5.72, 5.08, 4.24, 2.99, 1.83, 2.3, 2.53, 2.68, 3.16, 1.88, 0.59, -2.07, -3.16, -3.16, -4.54, -3.78, -2.86, -2.6, 0.0, 0.0, 2.53, 0.0, -2.2, -3.91, -3.32, 0.0, 3.87, 3.87, 7.27, 9.06, 9.49, 9.87, 10.12, 8.93, 8.24, 9.33, 9.75, 8.19, 6.88, 4.65, 3.79, 3.55, 3.9, 3.9, 4.42, 5.24, 6.73, 7.44, 8.05, 9.03, 9.49, 8.4, 5.82, 5.06, 4.83, 6.24, 6.95, 7.35, 6.64, 7.59, 8.93, 11.66, 14.47, 14.71, 13.97, 12.14, 7.63, 3.48, 8.14, 11.52, 12.52, 0.0, -2.84, -4.65, -6.79, -3.82, -2.53, 2.84, 6.7, 9.52, 10.73, 10.41, 8.79, 7.59, -4.11, -2.23, 2.6, 5.81, 8.82, 6.61, 6.61, 6.61, 6.61, 6.34, 6.34, 6.34, 6.34, 5.95, 5.7, 5.32, 4.24, 2.6, 2.53, 2.53, 2.76, 2.76, 2.76, 3.22, 1.72, -2.82, -5.0, -6.18, -5.37, -3.83, -3.16, -2.41, -0.98, 0.0, 0.98, 2.23, 0.0, -1.1, -1.68, 0.0, 1.48, 2.44, 6.65, 9.49, 7.93, 5.77, 5.2, 4.09, 8.01, 11.15, 12.42, 10.28, 7.47, 5.77, 4.01, 3.63, 4.01, 4.58, 4.58, 5.37, 6.44, 7.42, 7.42, 8.55, 10.01, 8.4, 4.73, 4.65, 5.3, 6.32, 6.95, 7.35, 6.32, 6.01, 8.42, 11.5, 13.15, 13.37, 13.99, 14.65, 13.63, 8.0, 3.16, 4.43, 9.39, 4.47, -2.07, -3.35, -5.37, -3.07, 0.0, 3.09, 7.78, 10.54, 9.92, 8.31, 9.3, 2.97, -3.35, -1.9, 3.07, 7.28, 9.33, 6.61, 6.61, 6.61, 6.61, 6.34, 6.34, 6.61, 6.08, 5.69, 5.7, 5.06, 4.0, 3.11, 2.53, 3.49, 2.4, 3.22, 3.72, 4.16, 3.55, 0.73, -3.07, -5.69, -7.18, -4.94, -4.22, -3.17, -1.95, -1.07, -0.96, 0.0, 0.0, 2.53, 2.16, 1.6, 0.73, 2.44, 5.6, 7.65, 5.21, 3.17, 2.06, 4.6, 9.17, 11.93, 9.83, 6.94, 6.91, 6.11, 5.59, 4.74, 4.01, 4.16, 5.06, 5.06, 5.69, 6.64, 6.64, 7.98, 9.33, 7.47, 4.46, 4.43, 4.74, 4.58, 6.32, 7.76, 7.76, 6.8, 8.48, 10.58, 11.28, 11.8, 14.06, 15.09, 15.53, 13.8, 8.49, 5.51, 9.49, 7.6, 0.0, -1.65, -2.54, -0.73, 1.3, 4.48, 7.25, 8.45, 8.3, 7.36, 6.7, -5.2, -3.6, -3.13, 3.07, 7.6, 8.14, 6.61, 6.61, 6.61, 6.61, 6.34, 6.61, 6.33, 6.33, 5.92, 5.69, 4.6, 3.94, 2.35, 3.11, 4.19, 3.72, 4.01, 4.74, 3.72, 4.19, 3.58, 3.32, 2.54, -1.94, -4.6, -3.11, -2.13, -3.11, -4.21, -3.68, -3.49, -1.41, 0.0, 5.36, 4.78, 3.25, 2.25, 3.39, 6.24, 6.4, 3.97, 3.17, 4.32, 5.2, 2.3, 2.53, 2.76, 5.37, 6.01, 5.69, 3.35, 3.64, 4.65, 4.65, 5.37, 6.08, 7.07, 7.6, 8.4, 8.63, 7.21, 4.4, 3.45, 3.22, 2.99, 4.47, 8.21, 8.67, 6.71, 7.15, 8.9, 10.24, 11.18, 12.05, 13.38, 12.52, 12.2, 10.6, 11.55, 14.06, 15.62, 8.53, 0.0, 0.0, 0.68, 2.76, 4.77, 6.1, 7.38, 6.7, 3.53, -5.26, -4.24, -4.02, 1.8, 4.09, 6.64, 6.54, 6.61, 6.61, 6.61, 6.61, 6.61, 6.33, 6.33, 6.33, 6.33, 5.67, 5.0, 4.21, 3.25, 2.49, 2.57, 3.6, 3.8, 4.26, 3.35, 2.5, 3.13, 5.26, 6.45, 4.15, 0.0, -2.21, -2.09, -4.21, -6.11, -4.71, -2.49, -1.25, 0.0, 2.72, 4.64, 4.4, 3.77, 3.39, 4.2, 2.3, 2.21, 1.49, 1.49, 0.0, -0.0, -0.0, 0.99, 2.41, 2.88, 4.03, 4.21, 3.79, 4.56, 5.37, 6.39, 7.06, 8.24, 9.2, 9.49, 8.91, 8.19, 4.73, 3.58, 2.2, 1.99, 5.06, 8.58, 8.48, 5.73, 5.81, 7.15, 8.94, 11.15, 11.99, 11.15, 9.83, 8.9, 9.97, 12.74, 15.12, 16.46, 14.11, 3.11, 1.29, 1.97, 3.46, 4.8, 6.2, 6.31, 3.11, -5.2, -3.48, -3.51, -1.9, 2.0, 4.46, 6.07, 4.52, 6.33, 6.33, 6.33, 6.33, 6.33, 6.33, 6.33, 6.58, 6.31, 5.64, 5.83, 5.8, 5.17, 3.44, 1.71, 2.53, 3.34, 3.34, 2.45, 1.33, 1.33, 3.25, 5.86, 6.28, 2.99, -1.18, -2.82, -5.46, -6.45, -3.53, 0.0, 0.0, 0.0, 0.0, 0.0, 2.49, 5.2, 4.29, 1.88, 1.34, 1.34, 1.79, -0.0, -0.57, -0.57, -0.0, 0.71, 1.16, 1.41, 1.52, 2.51, 4.03, 5.0, 6.06, 7.06, 8.3, 9.27, 10.15, 10.75, 10.02, 9.26, 6.51, 6.44, 2.32, 2.64, 4.58, 8.4, 8.4, 4.93, 3.53, 5.81, 9.39, 11.6, 11.6, 10.73, 9.39, 8.45, 8.8, 11.08, 13.84, 16.09, 16.52, 12.56, 1.65, 1.32, 2.26, 3.91, 5.59, 6.28, 4.11, -1.7, -2.0, -3.13, 0.0, 2.53, 3.78, 5.09, 3.72, 6.33, 6.33, 6.33, 6.33, 6.33, 6.71, 6.58, 6.31, 6.56, 6.29, 6.5, 6.9, 6.9, 5.83, 4.01, 3.34, 4.13, 3.1, 2.47, 1.25, 0.0, 0.0, 1.93, 3.0, 1.5, -1.25, -2.3, -2.53, -3.99, -2.1, 0.0, 0.61, 0.0, -0.61, -1.26, 0.0, 4.2, 2.53, 2.24, 1.26, 1.79, 1.79, -0.0, -0.8, -0.8, -0.0, 0.65, 1.16, 1.27, 0.63, 1.27, 3.35, 4.84, 6.07, 7.67, 8.67, 10.4, 11.45, 11.84, 11.15, 8.46, 6.99, 4.46, 1.84, 2.54, 5.59, 8.06, 8.24, 6.64, 5.64, 8.01, 10.28, 11.18, 10.28, 9.83, 10.26, 9.11, 7.76, 8.95, 11.62, 13.88, 15.5, 15.2, 11.92, 0.96, 0.88, 3.35, 4.89, 6.26, 2.2, 4.47, 3.6, 2.0, 1.41, 2.79, 4.12, 4.12, 2.51, 6.33, 6.33, 6.33, 6.71, 6.71, 6.97, 6.97, 6.96, 6.96, 6.94, 6.92, 6.9, 7.83, 7.57, 7.61, 6.34, 5.34, 5.26, 5.55, 5.04, 3.25, 1.48, 0.0, 0.0, 0.0, 0.0, -0.8, -0.8, -0.89, -1.49, -1.33, -1.6, -1.58, -1.6, 0.0, 0.0, -0.7, -2.54, -2.68, -3.13, -2.24, -0.0, -0.0, -0.0, -0.99, -0.0, 1.0, 1.26, 1.49, 1.9, 2.54, 3.13, 3.58, 4.43, 6.07, 8.19, 10.02, 11.98, 12.52, 10.26, 5.6, 3.17, 1.84, 0.84, 2.33, 6.32, 9.05, 9.9, 9.45, 9.83, 10.19, 10.7, 9.39, 7.6, 7.6, 9.81, 9.58, 8.0, 8.76, 10.41, 11.44, 11.45, 12.42, 14.75, 10.58, 5.06, 3.68, 3.48, 3.48, 3.48, 4.92, 1.55, 1.41, 2.0, 3.16, 5.46, 3.48, 1.84, 6.33, 6.33, 6.33, 6.71, 6.97, 6.97, 6.7, 6.96, 7.22, 6.94, 7.59, 7.57, 7.55, 8.49, 8.58, 7.86, 7.15, 7.15, 8.0, 8.73, 9.3, 9.18, 7.85, 5.36, 4.88, 4.47, 4.02, 1.86, -0.57, -3.2, -3.13, -2.17, -1.86, -1.7, -1.2, -2.6, -3.58, -3.58, -3.58, -4.02, -2.8, -2.23, -1.49, -0.61, -0.85, -1.0, 1.34, 0.6, 1.24, 1.4, 1.13, 1.27, 2.44, 4.29, 5.72, 7.21, 7.4, 10.23, 11.4, 3.98, -0.0, -0.0, 0.84, 1.07, 4.14, 6.0, 6.13, 9.2, 10.27, 11.18, 10.32, 9.33, 8.4, 7.92, 8.49, 10.18, 10.32, 9.2, 8.55, 7.59, 5.36, 6.07, 10.27, 12.8, 12.52, 12.52, 9.6, 2.26, 4.47, -0.0, 2.84, 0.0, 0.0, 2.3, 5.15, 5.09, 3.14, 1.98, 6.33, 6.33, 6.71, 6.71, 6.97, 6.97, 6.96, 6.96, 7.6, 7.33, 7.59, 7.57, 8.22, 8.86, 8.87, 8.85, 8.73, 8.29, 9.1, 9.63, 11.12, 11.71, 12.01, 11.62, 11.18, 10.28, 8.92, 6.22, 1.79, -1.2, -3.39, -2.17, -1.79, -1.79, -1.34, -2.6, -3.09, -3.09, -3.53, -3.82, -3.39, -3.32, -2.54, -1.58, -1.4, 2.24, 0.0, 0.71, 1.49, 0.81, 1.03, 2.04, 4.24, 5.33, 4.28, 2.82, 2.04, 5.69, 9.38, 1.2, -2.07, -0.88, -0.0, 1.98, 4.92, 3.95, 4.02, 5.81, 9.83, 7.47, 8.03, 8.93, 9.74, 9.72, 9.83, 10.93, 10.25, 7.28, 4.73, 4.15, 3.16, 3.43, 8.23, 10.91, 12.14, 13.31, 12.79, 8.55, -5.81, -0.0, -0.0, 0.0, 0.0, 2.76, 4.11, 3.72, 3.22, 1.98, 6.33, 6.33, 6.71, 6.97, 6.97, 6.97, 6.96, 7.33, 7.6, 7.6, 7.59, 8.23, 7.96, 8.22, 8.87, 8.87, 9.46, 9.37, 9.5, 10.3, 11.08, 12.11, 12.94, 13.63, 13.19, 12.83, 11.55, 8.85, 5.78, 2.68, 0.89, -1.6, -1.34, -0.95, -1.79, -2.24, -1.26, -1.86, -2.98, -3.6, -3.45, -3.39, -3.13, -2.24, -2.21, -0.0, 2.68, 0.0, 0.71, 0.79, 1.7, 4.0, 4.22, 1.88, 1.24, 0.7, 0.0, 3.51, 6.06, 1.6, -1.9, -2.4, -0.0, 1.79, 0.71, 1.33, 4.11, 5.59, 2.54, 1.66, 4.65, 9.2, 11.4, 10.73, 10.18, 9.11, 4.92, 3.51, 4.34, 5.36, 5.21, 4.19, 6.35, 8.11, 7.92, 11.2, 12.96, 10.75, 3.8, 7.15, -0.0, 0.0, 0.0, 1.27, 2.51, 1.27, 1.6, 1.6, 6.33, 6.33, 6.71, 6.97, 6.97, 6.97, 7.61, 7.33, 7.6, 7.6, 7.96, 7.96, 8.23, 8.23, 8.59, 9.5, 9.77, 9.72, 10.15, 10.68, 11.08, 11.92, 13.21, 13.98, 14.07, 13.8, 12.5, 11.6, 9.81, 7.48, 5.77, 3.04, 1.26, 0.0, 2.24, -0.0, -0.0, -0.65, -2.53, -4.6, -3.07, -1.86, -2.68, -2.8, -3.2, -1.8, -1.8, -2.21, 1.79, 0.63, 1.49, 2.6, 1.79, 0.8, -0.0, 1.34, 1.98, 3.22, 2.6, -0.0, -1.34, -1.34, -0.45, 0.45, 0.0, 1.33, 1.88, 0.0, -0.71, 2.15, 4.73, 9.83, 12.49, 11.52, 9.11, 4.02, 2.3, 2.16, 2.98, 5.2, 7.15, 5.37, 5.93, 6.8, 6.0, 4.46, 8.88, 9.42, 8.33, 7.6, 8.49, 0.0, 0.61, 1.16, 1.13, 0.0, 0.59, 0.59, 6.61, 6.71, 6.71, 6.97, 6.97, 7.33, 7.61, 7.61, 7.6, 7.96, 8.24, 8.24, 7.96, 7.96, 8.87, 8.87, 9.8, 10.65, 10.51, 10.83, 11.41, 12.11, 13.21, 13.65, 14.29, 14.75, 14.75, 14.29, 13.35, 11.78, 9.93, 7.63, 5.02, 2.0, 0.89, -0.0, -0.57, -2.21, -2.53, -2.98, -2.97, -2.12, -3.2, -1.9, -3.2, -2.53, -2.53, -2.21, -0.0, -0.0, -0.0, -0.0, -0.0, -0.0, 2.68, 3.13, 4.92, 2.53, -0.0, 3.58, 3.58, -3.13, -2.68, 2.24, 2.24, 0.95, 0.0, -2.41, -1.0, 3.04, 8.24, 10.38, 11.75, 10.68, 4.3, 0.87, -0.0, 1.32, 1.98, 2.8, 6.0, 7.6, 7.47, 7.4, 7.6, 4.29, 3.14, 4.02, 4.85, 7.63, 8.3, 0.0, 0.0, 0.61, 0.87, 0.0, 0.0, 0.0, 6.61, 6.98, 6.71, 6.97, 6.97, 7.33, 7.61, 7.61, 8.24, 7.96, 7.96, 8.24, 8.24, 8.24, 8.24, 8.87, 9.8, 10.09, 10.51, 11.08, 12.04, 12.6, 12.78, 12.75, 13.86, 15.2, 16.08, 15.53, 14.99, 13.75, 12.08, 10.13, 8.12, 5.81, 3.6, 1.34, -0.6, -2.6, -2.6, -2.24, -2.68, -2.68, -2.68, -2.24, -2.68, -2.21, -0.0, -0.0, -0.0, -0.0, -0.0, -0.0, -0.0, -0.0, -0.0, 4.02, -0.0, -0.0, 5.81, 5.36, 4.92, 4.47, -2.84, -2.53, -3.16, -0.8, 0.0, -0.66, 0.0, 3.21, 7.41, 8.22, 7.94, 3.79, 2.24, -2.21, -0.7, -0.0, 2.8, 5.2, 5.36, 6.26, 6.79, 8.15, 5.69, 1.08, 1.8, 2.91, 5.05, 6.7, 7.81, 5.6, 1.98, 0.61, 0.61, 0.0, 0.0, 0.0, 6.61, 6.98, 6.98, 6.97, 7.33, 7.33, 7.61, 7.61, 7.95, 8.24, 8.24, 7.96, 7.96, 7.96, 8.24, 8.46, 8.87, 9.13, 9.3, 10.8, 13.02, 14.03, 12.62, 10.68, 11.11, 14.31, 13.48, 14.08, 13.15, 11.99, 10.99, 10.15, 9.14, 7.72, 5.86, 3.83, 3.58, -3.47, -2.68, -2.6, -2.6, -2.68, -2.68, -1.79, -2.68, -1.9, -0.0, -0.0, -0.0, -0.0, -0.0, -0.0, -0.0, -0.0, -0.0, -0.0, 5.36, 5.81, 5.81, 5.36, 4.47, 4.02, -2.84, -1.24, -3.16, -1.74, 1.34, 1.84, 3.7, 4.36, 4.68, 6.55, 10.18, 10.18, 5.36, -2.24, -0.0, 2.53, 5.81, 5.81, 5.73, 7.31, 8.63, 8.0, 5.46, 3.52, 2.83, 2.66, 7.31, 6.32, 4.43, 4.19, 2.53, 1.13, 0.51, 0.59, 1.27, 1.27, 6.98, 6.98, 6.98, 7.26, 7.61, 7.33, 7.33, 7.61, 7.95, 7.95, 8.24, 8.24, 8.24, 8.24, 8.58, 8.56, 8.24, 7.32, 7.27, 8.68, 12.08, 14.15, 12.93, 10.9, 10.84, 12.3, 12.73, 12.32, 12.07, 10.24, 8.6, 7.94, 8.23, 7.23, 6.59, 5.09, 4.65, 5.81, -5.81, -4.82, -4.34, -4.47, -4.02, -3.6, -2.53, -0.0, -0.0, -0.0, -0.0, -0.0, -1.6, -1.27, -0.0, -0.0, -0.0, 1.27, 6.4, 4.92, 3.2, 3.16, 3.58, 3.13, -2.4, -2.84, -2.21, -2.23, -2.24, 1.7, 3.97, 5.81, 8.33, 12.04, 16.37, 18.55, 15.2, 7.33, 4.14, 6.01, 6.13, 5.94, 6.64, 7.81, 8.73, 7.81, 6.01, 2.26, 1.6, 2.68, 2.84, 2.41, 1.76, 3.79, 3.72, 2.0, 0.57, 1.11, 1.76, 1.76, 6.98, 6.98, 6.98, 7.26, 7.61, 7.61, 7.61, 8.24, 7.95, 7.95, 7.95, 8.24, 8.24, 8.56, 8.58, 8.56, 7.93, 7.61, 7.89, 9.4, 11.76, 12.56, 12.27, 11.67, 12.32, 12.33, 12.02, 11.44, 9.89, 6.69, 5.72, 5.59, 6.31, 6.31, 5.93, 5.05, 4.11, 4.11, 0.0, -6.26, -5.81, -5.81, -6.26, -0.0, -0.0, 4.92, 3.58, 3.58, -0.0, -1.4, -1.4, -1.8, -0.0, -0.0, -0.0, 1.98, 4.43, 5.94, 0.0, 2.68, -2.24, -2.8, -3.39, -3.58, -2.12, -3.13, -2.68, -0.0, 2.84, 5.3, 7.08, 10.18, 14.07, 16.19, 15.51, 10.3, 7.26, 7.43, 5.98, 5.93, 6.45, 7.1, 8.05, 7.15, 6.71, 4.02, -0.0, 0.87, 4.38, 4.02, 1.8, 3.6, 3.91, 1.88, 1.08, 1.19, 1.73, 1.73, 6.98, 6.98, 6.98, 6.98, 7.61, 7.61, 7.61, 7.93, 8.24, 8.24, 8.24, 7.95, 8.56, 8.56, 8.56, 8.56, 8.24, 8.87, 9.84, 11.39, 12.27, 11.63, 10.72, 11.33, 12.6, 13.38, 12.92, 11.06, 8.05, 5.95, 5.58, 3.91, 5.09, 5.05, 5.65, 5.05, 4.43, 3.48, 4.11, 5.6, 6.26, 6.26, 6.26, -0.0, -0.0, -0.0, 4.47, 3.58, -0.0, -2.21, -1.4, -1.8, -0.0, -0.0, -0.0, 1.84, 1.41, -0.0, -6.26, -2.24, -2.12, -2.23, -1.86, -1.7, -2.4, -2.8, -3.58, -3.13, -0.0, -0.0, 1.05, 6.4, 12.39, 13.96, 4.96, 5.55, 7.4, 7.53, 6.0, 4.6, 6.18, 6.28, 6.65, 6.26, 6.64, 4.77, 2.84, 3.58, 4.0, 4.87, 3.78, 3.47, 2.72, 1.73, 1.23, 1.23, 1.76, 1.76, 6.98, 6.98, 6.98, 7.32, 7.61, 7.61, 7.61, 7.93, 8.24, 8.24, 8.24, 8.24, 8.85, 8.85, 8.56, 8.87, 8.87, 9.5, 10.75, 12.27, 12.73, 11.72, 10.41, 10.51, 12.17, 13.47, 13.48, 12.23, 10.24, 9.06, 7.81, 6.36, 4.98, 4.46, 4.37, 4.41, 4.07, 3.78, 4.22, 5.64, 6.26, 6.26, 6.26, 5.6, 2.4, 2.2, -0.0, 3.58, -0.0, -0.0, -0.0, -0.0, -0.0, -0.0, -0.0, -0.0, -0.0, -1.55, -5.36, -3.58, -1.9, -1.58, -0.8, -1.0, -1.6, -1.41, -0.0, 2.24, 2.24, -0.8, -1.34, 0.95, 11.62, 4.92, 0.76, 1.5, 4.76, 5.83, 5.96, 5.15, 4.6, 5.69, 5.75, 5.16, 5.59, 4.4, 2.48, 2.3, 5.69, 7.27, 5.77, 2.2, 0.57, 0.51, 0.57, 1.23, 2.44, 2.44, 6.98, 6.98, 6.98, 6.98, 7.32, 7.61, 7.61, 7.93, 7.93, 8.24, 8.24, 8.24, 8.53, 8.85, 8.85, 8.87, 9.48, 10.12, 11.33, 11.92, 12.73, 12.16, 11.36, 11.47, 11.75, 12.42, 13.19, 12.51, 11.95, 11.38, 10.37, 8.67, 7.42, 6.51, 5.75, 5.43, 5.05, 4.46, 4.8, 4.98, 5.7, 6.26, 6.71, 6.26, 5.51, 3.48, 3.79, 4.47, 2.53, -0.0, -0.0, -0.0, -0.0, -0.0, -0.0, -0.0, -0.0, -1.24, -2.68, 4.02, -0.0, -2.24, 1.79, -0.0, -1.41, -0.0, -0.0, 5.36, 2.24, 1.34, -0.57, 6.52, 9.83, 5.81, 2.12, 0.0, 1.47, 4.39, 5.31, 4.81, 4.49, 5.06, 5.59, 6.11, 5.84, 3.97, 1.96, 2.83, 5.21, 3.68, 3.76, -4.8, -2.23, -0.79, 0.0, 1.94, 2.6, 2.6, 6.98, 6.98, 6.98, 7.32, 7.32, 7.32, 7.61, 7.93, 7.93, 8.24, 8.24, 8.53, 8.53, 8.85, 8.85, 9.17, 10.09, 10.4, 10.99, 11.52, 11.8, 12.27, 12.42, 12.67, 12.28, 12.39, 12.28, 12.51, 12.64, 12.36, 11.87, 10.67, 9.62, 8.84, 8.36, 7.85, 7.37, 6.57, 6.45, 5.94, 6.61, 6.71, 7.15, 6.71, 6.14, 5.64, 5.64, 5.2, 4.4, 4.4, 3.16, 2.2, -0.0, -0.0, -0.0, -0.0, -0.0, -0.8, -0.89, 2.68, 3.58, 2.24, -2.68, -1.4, -1.08, -0.0, -0.0, -0.0, -0.0, 0.0, 2.0, 5.06, 10.18, 10.28, 9.83, 7.15, 3.13, 2.53, 3.32, 3.82, 4.24, 5.6, 6.0, 6.83, 5.15, 4.22, 1.95, 1.95, 0.0, -4.02, -5.81, -7.81, -5.2, 0.0, 0.66, 1.88, 3.08, 3.08, 6.98, 6.98, 7.32, 7.32, 7.32, 7.32, 7.61, 8.22, 8.22, 8.53, 8.53, 8.53, 8.53, 8.85, 9.13, 9.46, 9.77, 10.36, 10.94, 11.23, 11.8, 12.09, 13.09, 13.09, 13.08, 13.19, 12.51, 11.6, 12.12, 11.72, 11.54, 11.45, 10.72, 9.97, 9.64, 8.85, 8.38, 8.36, 7.85, 7.54, 7.54, 7.6, 7.6, 7.52, 7.08, 6.61, 6.36, 5.94, 5.94, 5.51, 4.98, 3.48, 2.0, -0.0, -0.0, -0.0, -0.0, -1.2, -0.63, 1.79, 3.13, 3.58, 2.24, -1.2, -0.0, -0.0, -0.0, -0.0, -1.79, 0.0, 1.13, 4.43, 7.47, 11.6, 12.86, 11.62, 10.94, 6.71, 2.79, 2.46, 4.81, 5.99, 7.44, 6.44, 4.01, 3.07, 2.8, 0.0, -3.13, -3.97, -3.22, -7.15, 3.8, 3.0, 1.84, 2.0, 2.44, 2.44, 6.98, 6.98, 7.32, 7.32, 7.32, 7.6, 7.91, 8.22, 8.22, 8.22, 8.53, 8.82, 8.82, 8.85, 9.13, 9.72, 10.06, 10.65, 10.88, 11.23, 11.52, 12.09, 12.27, 13.09, 13.48, 13.31, 13.02, 11.92, 11.82, 11.54, 11.03, 10.83, 10.42, 10.6, 10.18, 9.86, 9.57, 9.67, 9.31, 8.92, 8.91, 8.49, 8.49, 8.0, 7.54, 7.37, 7.37, 6.88, 6.45, 6.02, 5.4, 4.4, 3.16, 1.98, 0.8, -0.0, -0.0, -1.58, -0.6, 0.89, 0.0, 2.53, 3.58, -0.0, -0.0, -0.0, -0.0, -0.95, -1.2, 0.0, 1.33, 3.07, 6.44, 8.63, 9.26, 10.27, 12.65, 9.93, 3.6, 0.95, 3.39, 5.5, 7.21, 5.69, 3.97, 3.45, 1.41, -3.2, -4.02, -3.07, -2.0, 0.0, 3.6, 4.37, 4.19, 2.73, 2.48, 2.48, 6.98, 6.98, 7.32, 7.32, 7.32, 7.6, 7.6, 8.22, 8.22, 8.22, 8.53, 8.82, 8.82, 8.82, 9.13, 9.72, 10.06, 10.3, 10.65, 10.88, 11.52, 11.72, 12.27, 12.7, 13.48, 13.31, 13.02, 12.83, 11.92, 11.62, 11.33, 10.91, 10.42, 10.18, 10.12, 9.7, 9.86, 9.54, 9.23, 9.31, 8.92, 8.91, 8.49, 8.46, 8.01, 7.92, 8.45, 7.55, 7.1, 6.64, 5.73, 4.8, 3.72, 2.23, 0.99, -0.0, -0.0, -0.95, -0.6, -0.0, 1.79, 0.0, 4.02, 0.85, 0.85, -0.0, -0.0, -1.34, -1.2, 0.0, 1.2, 2.51, 5.06, 5.15, 4.0, 7.56, 10.26, 8.49, 3.53, 0.73, 2.21, 6.0, 7.71, 6.45, 3.52, 0.0, -3.72, -3.58, -3.39, -1.84, -1.23, 0.0, 1.47, 4.46, 4.46, 4.29, 3.72, 3.72, 6.98, 6.98, 7.32, 7.32, 7.6, 7.6, 7.6, 8.22, 8.22, 8.22, 8.22, 8.82, 8.82, 9.08, 9.42, 10.01, 10.01, 10.59, 10.59, 11.16, 11.16, 11.72, 12.16, 12.54, 12.95, 12.79, 13.02, 12.83, 12.33, 12.11, 11.81, 11.39, 10.91, 10.6, 10.18, 9.7, 9.86, 9.39, 9.54, 9.64, 9.29, 8.91, 8.46, 7.6, 7.15, 7.33, 8.36, 8.05, 7.6, 6.71, 5.7, 5.09, 3.48, 2.0, 1.6, -0.0, -0.0, -0.63, -0.8, -1.26, -1.2, 2.68, -0.0, -0.0, -0.0, -0.0, -0.0, -1.34, -2.24, -1.26, 0.71, 4.0, 7.2, 5.69, 5.76, 7.52, 7.68, 5.6, 3.6, 1.4, 2.07, 5.99, 8.01, 8.2, 4.66, 1.7, -2.21, -1.27, -0.96, -0.7, -0.67, 0.0, 0.0, 2.35, 3.77, 4.68, 5.06, 5.06, 6.98, 6.98, 7.32, 7.32, 7.6, 7.6, 7.6, 7.9, 8.22, 8.22, 8.22, 8.5, 8.82, 9.08, 9.42, 9.66, 10.01, 10.59, 10.59, 10.8, 11.16, 11.35, 11.62, 12.16, 12.42, 12.79, 13.02, 12.83, 12.6, 12.11, 12.11, 11.81, 11.39, 10.91, 10.6, 10.18, 9.86, 9.86, 9.97, 9.5, 9.62, 9.28, 8.84, 8.01, 7.15, 7.6, 8.41, 7.15, 5.29, 4.92, 4.92, -0.0, 2.2, -0.0, -0.0, -0.0, -0.0, -0.0, -1.26, -1.86, -2.12, -2.68, 1.79, -0.89, -0.57, -0.0, -1.2, -0.0, -1.79, -1.0, 0.61, 3.84, 8.33, 10.41, 9.26, 9.4, 8.53, 6.01, 3.72, 2.5, 2.15, 4.96, 7.34, 8.58, 8.76, 4.74, 2.23, 0.98, 0.0, 0.0, -0.84, -0.8, 0.0, 1.84, 2.83, 3.8, 4.83, 4.83, 6.98, 6.98, 7.32, 7.32, 7.6, 7.6, 7.6, 7.9, 7.9, 8.22, 8.22, 8.22, 8.5, 9.08, 9.08, 9.66, 10.01, 10.23, 10.59, 10.8, 11.44, 11.62, 11.62, 11.88, 12.03, 12.03, 12.28, 12.11, 12.53, 12.78, 12.6, 12.53, 11.62, 11.39, 11.08, 10.66, 10.34, 9.86, 9.97, 9.93, 9.62, 9.62, 9.28, 8.38, 7.45, 7.94, 8.41, 6.71, 4.02, 3.58, 3.58, 2.53, 1.8, -0.0, -0.0, -0.0, -0.0, -0.0, -1.9, -1.86, -2.24, -2.0, -1.2, -1.2, -0.57, -0.57, -0.63, 0.0, 1.58, 2.21, 1.27, 1.27, 4.0, 10.73, 13.31, 13.03, 11.6, 8.3, 5.09, 4.09, 2.84, 2.4, 6.2, 8.29, 9.1, 8.57, 7.41, 4.29, 2.73, 0.0, 0.0, 0.0, 0.0, 0.0, 2.23, 2.9, 3.33, 3.33, 6.98, 6.98, 7.32, 7.6, 7.6, 7.6, 7.6, 7.9, 7.9, 7.9, 8.22, 8.22, 8.5, 9.08, 9.08, 9.66, 9.94, 10.51, 10.51, 10.51, 11.07, 11.07, 11.62, 11.88, 11.88, 12.14, 11.75, 11.6, 11.62, 11.62, 12.6, 12.6, 12.11, 11.39, 10.91, 10.66, 10.81, 10.34, 10.01, 9.97, 9.64, 9.62, 9.29, 8.84, 8.82, 9.11, 9.11, 8.01, 6.26, 4.92, 4.47, 3.58, 3.39, 2.98, 2.21, -0.0, -0.0, -0.71, -1.58, -3.07, -2.24, -2.12, -1.34, -0.6, -0.54, -0.65, -0.0, 0.0, 2.15, 3.22, 1.84, 0.0, 0.76, 7.06, 13.86, 14.99, 12.18, 8.69, 6.68, 8.18, 6.64, 3.48, 2.95, 7.59, 9.59, 10.24, 10.29, 9.05, 5.81, 4.11, 0.0, -2.21, 0.0, 0.57, 1.32, 2.12, 2.26, 2.26, 6.98, 6.98, 7.32, 7.6, 7.6, 7.6, 7.6, 7.9, 7.9, 7.9, 7.9, 8.22, 8.78, 8.78, 9.37, 9.59, 9.94, 9.94, 10.51, 10.51, 11.07, 11.07, 11.5, 11.5, 11.5, 11.75, 11.75, 11.75, 11.36, 11.75, 10.91, 11.21, 11.21, 11.33, 10.91, 10.66, 10.66, 10.34, 10.47, 10.01, 10.11, 9.64, 9.62, 9.29, 9.28, 9.28, 9.72, 8.91, 8.05, 7.15, 6.26, 5.36, 4.41, 3.95, 3.32, 2.8, 2.23, -0.0, -1.58, -2.6, -3.07, -1.34, -1.58, -0.57, -0.65, -1.16, -0.65, -0.0, 1.9, 2.23, 0.8, -0.71, 0.0, 3.72, 11.87, 15.01, 8.99, 1.84, 2.48, 6.52, 8.4, 9.74, 8.94, 7.5, 8.95, 10.23, 11.2, 10.8, 8.6, 6.79, 5.36, -1.4, -1.9, 0.0, 3.48, 2.12, 3.0, 3.0, 6.98, 6.98, 6.98, 7.6, 7.6, 7.6, 7.6, 7.9, 7.9, 7.9, 7.9, 8.19, 8.78, 8.78, 9.37, 9.37, 9.59, 9.94, 10.15, 10.51, 10.7, 11.34, 11.34, 11.5, 11.5, 11.75, 11.75, 11.75, 12.03, 12.11, 11.41, 10.71, 10.91, 10.91, 10.91, 10.66, 10.6, 10.34, 10.34, 10.01, 10.01, 9.67, 9.64, 9.74, 9.29, 9.74, 9.72, 9.36, 8.91, 8.49, 7.6, 6.71, 6.26, 5.81, 4.85, 4.41, 3.51, 2.6, -0.0, -1.58, -1.79, -1.26, -1.26, -1.0, -1.0, -1.2, -1.2, -1.24, 0.89, 0.89, -0.95, -0.8, 0.7, 5.38, 10.9, 13.91, 9.79, 3.13, 3.13, 6.71, 9.83, 11.18, 11.57, 11.55, 11.53, 11.96, 12.89, 12.72, 10.91, 8.87, 4.47, 1.58, -0.0, 3.13, 4.47, 6.36, 7.15, 7.15, 6.98, 6.98, 6.98, 7.6, 7.6, 7.6, 7.6, 7.9, 7.9, 7.9, 7.9, 8.19, 8.78, 8.78, 8.78, 9.37, 9.59, 9.94, 9.94, 10.51, 10.51, 10.96, 10.96, 11.34, 11.5, 11.75, 11.75, 11.75, 12.28, 12.11, 11.82, 11.12, 11.12, 10.91, 10.91, 10.6, 10.6, 10.34, 10.34, 10.01, 10.01, 9.67, 9.64, 9.75, 9.75, 9.74, 9.74, 9.28, 9.36, 8.91, 8.46, 8.05, 7.6, 7.15, 6.26, 5.81, 4.92, 3.95, 3.39, -0.0, -1.58, -1.58, -1.0, -1.0, -1.0, -1.58, -1.58, -1.26, -1.2, -1.34, -0.99, 0.0, 2.41, 8.65, 11.28, 12.45, 12.52, 11.97, 11.6, 12.2, 12.07, 11.93, 11.45, 11.99, 12.22, 13.55, 14.47, 12.86, 10.73, 6.71, 4.43, 3.74, 2.4, 2.68, 4.02, 5.36, 7.15, 7.15, 6.7, 6.7, 6.7, 6.98, 7.6, 7.6, 7.6, 7.9, 7.9, 7.9, 7.9, 8.19, 8.78, 8.78, 8.78, 9.02, 9.37, 9.94, 9.94, 10.15, 10.51, 10.79, 10.96, 10.96, 10.96, 11.36, 11.75, 11.75, 11.75, 11.6, 11.6, 11.41, 10.91, 10.71, 10.91, 10.6, 10.6, 10.18, 10.29, 9.86, 10.01, 9.67, 9.23, 9.75, 9.75, 10.19, 10.19, 9.74, 9.28, 9.36, 8.9, 8.45, 8.05, 7.6, 7.15, 6.71, 5.81, 5.36, 4.47, 2.21, -0.0, -1.49, -2.0, -1.26, -0.6, 1.79, -1.26, -1.24, -1.26, -1.34, -0.6, 0.0, 2.21, 9.54, 12.09, 11.8, 11.62, 12.53, 14.55, 15.63, 13.84, 11.36, 9.8, 9.6, 10.18, 11.06, 11.06, 9.39, 5.36, 5.32, 5.16, 4.66, 3.9, 3.13, 2.53, 4.4, 5.94, 5.94, 6.7, 6.7, 6.98, 6.98, 7.3, 7.6, 7.6, 7.6, 7.9, 7.9, 7.9, 7.9, 8.78, 8.78, 8.78, 9.02, 9.37, 9.59, 9.94, 10.15, 10.15, 10.79, 10.96, 10.96, 10.96, 11.22, 11.36, 11.36, 11.36, 11.6, 11.6, 11.08, 10.91, 11.12, 10.71, 10.83, 10.6, 10.6, 10.29, 10.29, 9.97, 9.54, 9.21, 8.9, 8.92, 9.81, 10.19, 10.18, 9.72, 9.26, 8.8, 8.45, 8.0, 7.6, 7.6, 7.15, 6.26, 5.81, 4.02, 3.47, 2.53, -0.0, -1.58, -1.26, -0.63, -0.0, -0.57, -1.2, -1.0, -0.6, -1.79, -0.95, 1.34, 8.05, 12.52, 12.27, 10.6, 11.87, 15.13, 15.47, 12.97, 9.58, 7.74, 6.9, 7.2, 7.94, 7.6, 4.92, 4.87, 5.16, 5.64, 5.16, 4.41, 4.47, 1.6, 3.16, 5.2, 5.51, 6.7, 6.7, 6.98, 6.98, 7.3, 7.3, 7.6, 7.6, 7.9, 7.9, 7.9, 7.9, 8.22, 8.78, 8.78, 8.78, 9.37, 9.59, 9.94, 9.94, 10.15, 10.41, 10.79, 10.96, 10.96, 11.22, 11.22, 11.36, 11.6, 11.6, 11.08, 11.08, 10.91, 10.4, 10.62, 10.83, 10.42, 10.6, 10.54, 10.29, 9.81, 9.54, 8.64, 8.45, 8.49, 10.26, 11.09, 10.52, 10.02, 9.7, 8.8, 8.33, 8.0, 7.55, 7.54, 7.15, 6.71, 5.81, 4.47, 4.02, 3.9, 2.53, -0.0, -0.95, -0.63, -0.0, -1.0, -0.71, -0.71, -0.0, 1.34, -1.34, 0.0, 5.75, 13.39, 12.86, 9.36, 10.01, 13.23, 14.65, 11.99, 8.97, 7.71, 6.45, 4.92, 4.47, 4.87, 5.31, 5.16, 5.2, 5.2, 5.2, 5.16, 5.81, 4.66, 3.16, 3.93, 5.2, 6.7, 6.7, 6.98, 6.98, 7.3, 7.3, 7.6, 7.6, 7.9, 7.9, 7.9, 7.9, 8.22, 8.5, 8.78, 8.78, 9.02, 9.37, 9.59, 9.94, 9.94, 10.41, 10.41, 10.41, 10.96, 11.22, 11.22, 11.22, 11.47, 11.08, 11.08, 10.91, 10.8, 10.4, 10.21, 10.21, 10.42, 10.42, 10.54, 10.29, 10.24, 9.97, 9.07, 8.17, 8.77, 10.65, 11.86, 10.75, 10.02, 9.11, 8.63, 8.33, 7.85, 7.42, 7.55, 7.11, 6.65, 5.36, 4.92, 4.47, 4.47, 3.82, 2.21, -0.0, -0.0, -0.0, -0.95, -0.95, -0.57, -0.0, -0.0, -0.95, 0.0, 3.93, 10.68, 11.96, 10.25, 8.63, 10.48, 11.56, 10.8, 9.18, 7.76, 6.26, 4.85, 5.73, 6.45, 6.45, 6.07, 6.07, 5.32, 5.32, 5.77, 7.1, 6.26, 5.2, 4.29, 3.93, 6.7, 6.7, 6.98, 6.98, 6.98, 7.3, 7.3, 7.6, 7.6, 7.9, 7.9, 7.9, 8.22, 8.5, 8.5, 8.78, 9.02, 9.37, 9.59, 9.59, 9.94, 10.23, 10.41, 10.41, 10.41, 10.83, 10.83, 10.83, 11.08, 11.08, 10.91, 10.91, 10.4, 10.4, 10.21, 10.11, 10.11, 10.33, 10.54, 10.12, 10.24, 9.81, 9.33, 8.91, 9.33, 11.21, 10.8, 9.15, 8.24, 8.19, 8.36, 8.33, 7.85, 7.42, 7.42, 6.98, 6.66, 5.77, 5.31, 4.92, 4.92, 4.47, 4.47, 2.53, 3.13, 3.13, -0.0, -2.21, -0.8, -0.0, -0.0, 0.0, 0.7, 1.66, 3.45, 8.94, 11.36, 10.7, 9.24, 7.58, 5.43, 4.11, 4.87, 7.1, 7.37, 7.37, 7.1, 7.1, 7.55, 7.11, 6.66, 6.22, 6.26, 8.05, 8.05, 7.15, 6.23, 6.23, 6.98, 6.98, 6.98, 6.98, 6.98, 7.3, 7.3, 7.6, 7.6, 7.6, 7.9, 7.9, 7.9, 8.22, 8.5, 8.78, 8.78, 9.02, 9.37, 9.59, 9.59, 9.86, 9.86, 10.41, 10.41, 10.68, 10.83, 10.83, 11.08, 10.68, 10.91, 10.91, 10.62, 10.21, 10.11, 10.11, 10.33, 9.92, 9.83, 10.05, 10.24, 9.81, 9.81, 9.81, 10.46, 11.52, 9.93, 7.87, 7.4, 6.94, 7.48, 7.89, 7.89, 7.85, 7.42, 7.42, 6.55, 6.22, 5.77, 5.31, 5.36, 4.92, 4.02, 4.02, 3.13, 3.13, -0.0, -0.0, -0.0, -0.0, 0.89, 0.0, 0.0, 1.23, 1.66, 4.89, 8.82, 10.7, 8.05, 3.97, 2.6, 4.02, 8.43, 10.12, 10.12, 9.34, 7.55, 7.15, 7.15, 7.15, 7.15, 7.15, 7.15, 8.05, 8.43, 8.38, 8.38, 8.38, 6.98, 6.98, 6.98, 6.98, 6.98, 7.3, 7.3, 7.3, 7.6, 7.6, 7.9, 7.9, 7.9, 8.22, 8.5, 8.78, 8.78, 8.78, 9.02, 9.37, 9.86, 9.86, 9.86, 9.86, 10.3, 10.3, 10.68, 10.55, 10.68, 10.68, 10.8, 10.4, 10.62, 10.21, 10.11, 10.33, 9.92, 9.83, 9.83, 10.05, 9.63, 9.63, 9.81, 9.81, 10.24, 10.67, 9.97, 8.77, 8.3, 7.87, 7.07, 7.06, 7.45, 7.45, 7.55, 7.55, 6.98, 6.55, 6.11, 5.77, 5.31, 5.36, 4.92, 4.47, 3.13, 3.13, -0.0, -0.0, -0.0, -0.0, 0.45, 0.0, 0.0, 1.23, 2.26, 4.37, 6.68, 9.33, 9.39, 8.44, 8.72, 10.79, 13.37, 13.15, 12.39, 10.69, 8.49, 6.71, 6.26, 6.71, 6.71, 7.15, 7.15, 8.89, 8.89, 8.6, 8.6, 8.6, 6.7, 6.7, 6.98, 6.98, 6.98, 7.3, 7.3, 7.3, 7.3, 7.3, 7.6, 7.9, 7.9, 8.19, 8.78, 8.78, 8.78, 8.78, 9.02, 9.3, 9.3, 9.5, 9.86, 9.86, 10.13, 10.3, 10.3, 10.55, 10.55, 10.55, 10.4, 10.4, 10.62, 10.21, 10.42, 10.33, 9.92, 9.83, 9.63, 9.63, 9.63, 9.63, 9.63, 9.81, 9.81, 9.81, 9.54, 9.11, 8.64, 8.33, 7.87, 7.4, 6.61, 7.04, 7.45, 7.55, 6.98, 6.55, 6.11, 6.11, 5.64, 5.31, 5.36, 4.47, 4.02, 3.13, -0.0, -0.0, -0.0, -0.0, 0.45, 0.0, 0.59, 1.47, 2.8, 3.38, 4.46, 8.14, 11.18, 12.1, 12.56, 15.12, 16.63, 15.84, 13.62, 11.14, 9.34, 8.49, 8.05, 6.65, 8.41, 6.21, 7.11, 8.29, 8.24, 8.17, 8.17, 8.17, 6.7, 6.7, 6.98, 6.98, 6.98, 7.3, 7.3, 7.3, 7.3, 7.3, 7.59, 8.19, 8.19, 8.19, 8.19, 8.45, 8.78, 8.78, 8.78, 9.02, 9.3, 9.3, 9.3, 9.76, 9.76, 10.13, 10.3, 10.55, 10.55, 10.4, 10.4, 10.4, 10.21, 10.21, 10.11, 9.92, 9.92, 9.83, 9.63, 9.63, 9.63, 9.63, 9.63, 9.63, 9.81, 9.81, 9.39, 9.11, 8.64, 8.64, 8.17, 7.87, 7.4, 6.94, 7.04, 7.11, 7.11, 6.98, 6.55, 6.11, 5.64, 5.59, 5.31, 4.85, 4.02, 3.58, 3.13, -0.0, -0.0, -0.0, 0.0, 0.71, 1.16, 1.84, 2.23, 2.15, 3.51, 7.55, 9.7, 8.38, 10.01, 15.25, 17.96, 16.53, 13.49, 11.05, 10.24, 10.28, 9.83, 9.29, 7.06, 4.73, 6.07, 6.98, 7.42, 7.12, 7.12, 7.12, 6.7, 6.7, 6.98, 6.98, 6.98, 7.3, 7.3, 7.3, 7.3, 7.59, 7.59, 7.59, 7.86, 8.19, 8.19, 8.19, 8.45, 8.45, 8.45, 9.08, 9.3, 9.3, 9.58, 9.76, 9.76, 9.76, 10.02, 10.16, 10.16, 10.4, 10.4, 10.0, 10.11, 10.11, 10.11, 9.92, 9.92, 9.92, 9.42, 9.63, 9.63, 9.63, 9.63, 9.13, 9.33, 9.33, 9.33, 9.11, 8.64, 8.64, 8.17, 7.74, 7.69, 7.4, 6.47, 7.01, 7.11, 7.11, 6.55, 6.36, 5.94, 5.44, 5.16, 4.87, 4.41, 4.02, 3.58, 3.13, 3.13, 1.34, 0.0, 0.0, 0.71, 1.24, 1.58, 2.24, 3.13, 6.17, 5.77, 4.12, 6.7, 13.59, 17.89, 17.04, 15.1, 12.74, 10.73, 9.79, 8.89, 5.16, 4.3, 4.52, 4.93, 5.86, 6.36, 6.36, 6.36, 6.36, 6.98, 6.98, 6.98, 6.98, 6.98, 7.3, 7.3, 7.3, 7.59, 7.59, 7.59, 7.59, 7.86, 7.86, 8.19, 8.19, 8.19, 8.45, 8.73, 8.73, 8.73, 8.94, 9.21, 9.21, 9.76, 9.76, 10.02, 10.02, 10.02, 10.4, 10.0, 9.88, 10.11, 10.11, 9.71, 9.71, 9.92, 9.42, 9.42, 9.63, 9.63, 9.21, 9.21, 9.13, 9.33, 9.33, 8.91, 8.91, 8.48, 8.64, 8.17, 8.17, 7.69, 7.26, 6.94, 6.47, 6.58, 6.55, 6.55, 6.11, 5.94, 5.44, 5.02, 4.73, 4.41, 4.47, 4.02, 3.58, 3.13, 1.34, 1.34, 0.0, 0.0, 0.0, 1.79, 1.79, 2.68, 2.21, 2.6, 3.2, 5.77, 10.95, 15.24, 16.24, 15.74, 13.4, 9.81, 6.21, 5.16, 5.16, 4.11, 3.72, 4.09, 5.6, 6.0, 6.25, 6.25, 6.25, 6.98, 6.98, 6.98, 6.98, 6.98, 6.98, 7.3, 7.3, 7.59, 7.59, 7.59, 7.59, 7.59, 7.86, 7.86, 7.86, 8.49, 8.73, 8.73, 8.73, 8.73, 9.21, 9.21, 9.21, 9.21, 9.63, 9.63, 9.63, 9.88, 9.88, 9.88, 9.88, 10.11, 9.71, 9.71, 9.71, 9.83, 9.42, 9.42, 9.42, 9.63, 9.21, 9.21, 9.13, 9.13, 9.33, 8.91, 8.91, 8.91, 8.48, 8.0, 8.0, 7.51, 7.51, 6.79, 6.79, 6.47, 6.14, 6.11, 6.11, 5.86, 5.44, 5.02, 4.52, 4.24, 3.9, 3.13, 3.13, 1.58, -0.0, 1.79, 1.79, -1.6, -1.6, -1.6, 1.79, -0.0, 0.71, 1.16, 2.79, 4.84, 7.03, 9.67, 12.51, 14.38, 13.4, 4.87, 3.2, 3.87, 5.32, 5.64, 4.52, 4.09, 4.46, 5.09, 5.69, 5.69, 5.69, 6.98, 6.98, 6.98, 6.98, 6.98, 6.98, 6.98, 7.59, 7.59, 7.59, 7.59, 7.59, 7.59, 7.59, 7.86, 8.15, 8.15, 8.15, 8.38, 8.73, 8.73, 9.01, 9.21, 9.21, 9.21, 9.48, 9.63, 9.63, 9.88, 9.88, 9.88, 9.88, 9.71, 9.71, 9.71, 9.2, 9.42, 9.42, 9.42, 9.42, 9.42, 9.21, 9.21, 9.13, 9.13, 8.91, 8.91, 8.91, 8.91, 8.48, 8.48, 8.0, 7.93, 7.01, 6.79, 6.79, 6.3, 6.04, 5.57, 5.67, 5.44, 5.44, 4.8, 4.66, 4.09, 4.0, 2.53, 2.4, 1.79, 1.34, 1.79, 1.79, 1.79, -1.6, -1.6, -1.79, -1.26, -0.8, -0.0, 1.9, 3.6, 4.46, 5.46, 9.6, 14.13, 11.18, 5.81, 3.2, 2.79, 4.11, 6.07, 6.28, 4.37, 4.12, 4.46, 4.46, 4.46, 4.46, 6.98, 6.98, 6.98, 6.98, 6.98, 6.98, 6.98, 7.28, 7.59, 7.59, 7.59, 7.59, 7.59, 7.88, 8.15, 8.15, 8.15, 8.15, 8.15, 8.38, 8.38, 9.01, 9.01, 9.21, 9.48, 9.48, 9.48, 9.63, 9.88, 9.88, 9.88, 9.48, 9.71, 9.71, 9.71, 9.2, 9.42, 9.42, 9.42, 9.42, 9.42, 9.01, 9.21, 9.13, 8.72, 8.91, 8.48, 8.91, 8.91, 8.48, 8.48, 8.0, 8.0, 7.43, 7.01, 7.01, 6.51, 6.3, 5.81, 5.51, 5.44, 5.44, 4.8, 4.37, 4.12, 3.84, 2.23, 0.99, 0.0, -0.6, -0.95, 1.34, 2.24, 2.24, -1.79, -2.68, -2.24, -2.0, -0.95, 1.6, 2.8, 3.07, 4.0, 8.01, 15.63, 12.87, 7.55, 3.32, 2.21, 2.84, 4.66, 6.94, 5.09, 3.48, 3.07, 3.35, 3.35, 3.35, 6.98, 6.98, 6.98, 6.98, 6.98, 6.98, 7.28, 7.28, 7.28, 7.59, 7.59, 7.27, 7.88, 7.88, 7.88, 8.15, 8.15, 8.15, 8.15, 8.15, 8.65, 8.65, 8.65, 8.65, 9.1, 9.1, 9.1, 9.1, 9.35, 9.48, 9.48, 9.48, 9.71, 9.71, 9.3, 9.2, 9.2, 9.42, 9.42, 9.42, 9.42, 9.32, 8.91, 9.13, 9.13, 8.72, 8.48, 8.48, 8.91, 8.91, 8.48, 8.42, 8.0, 7.43, 7.43, 6.92, 6.92, 6.51, 6.1, 5.81, 5.31, 5.2, 5.2, 4.73, 4.73, 3.72, 2.68, 1.13, 0.0, -1.49, -2.23, -1.9, 0.0, 2.4, 1.58, 2.24, -2.68, -2.0, 0.89, 0.89, 1.6, 2.8, 3.82, 14.66, 16.37, 14.11, 10.12, 4.57, 1.4, 1.84, 3.78, 6.25, 5.82, 3.48, 2.79, 1.66, 1.66, 1.66, 6.98, 6.98, 6.98, 6.98, 6.98, 6.98, 7.28, 7.28, 6.97, 6.97, 7.27, 7.27, 7.55, 7.55, 7.88, 7.88, 8.15, 8.15, 8.15, 8.15, 8.44, 8.65, 8.65, 8.65, 8.93, 9.1, 9.1, 9.1, 9.35, 9.35, 9.35, 9.35, 9.6, 9.6, 9.2, 9.2, 9.2, 9.42, 9.42, 9.42, 9.42, 8.91, 8.91, 8.91, 9.13, 8.63, 8.3, 8.3, 8.91, 8.91, 8.48, 8.48, 7.31, 7.31, 7.01, 6.92, 6.92, 6.92, 6.51, 6.0, 5.47, 5.72, 5.31, 5.31, 4.75, 4.43, 3.22, 2.4, 0.0, 0.0, -1.4, -1.6, 0.0, 0.85, 1.24, 1.26, -1.79, -0.95, 0.0, 0.63, 0.89, 1.79, 8.49, 13.84, 15.63, 13.84, 10.69, 6.64, 0.87, 1.13, 3.16, 5.72, 6.6, 4.19, 3.16, 1.41, 1.41, 1.41, 6.98, 6.98, 6.98, 6.98, 6.98, 7.28, 7.28, 6.97, 6.97, 6.97, 7.27, 7.27, 7.55, 7.55, 7.55, 7.55, 7.81, 8.15, 8.15, 8.44, 8.44, 8.44, 8.65, 8.65, 8.93, 8.93, 9.1, 9.1, 9.35, 9.35, 9.35, 9.35, 9.6, 9.2, 9.2, 9.2, 9.2, 9.2, 9.42, 9.42, 9.01, 8.91, 8.91, 8.91, 8.4, 8.4, 8.0, 8.22, 8.3, 8.72, 8.3, 8.3, 7.71, 7.31, 6.8, 6.67, 6.67, 6.67, 6.67, 6.13, 5.75, 5.86, 5.31, 5.31, 5.09, 4.74, 4.29, 2.88, 0.76, 0.0, 2.21, 2.68, 0.0, 0.0, 0.0, 0.0, -0.71, 0.0, 0.0, 0.71, 0.0, 1.26, 5.81, 11.18, 12.96, 11.18, 8.49, 4.98, 0.0, 1.27, 3.72, 6.7, 6.99, 5.37, 3.48, 0.0, 0.0, 0.0, 6.69, 6.69, 6.69, 6.98, 7.28, 6.97, 6.97, 6.97, 6.97, 6.97, 6.97, 7.55, 7.55, 7.55, 7.55, 7.55, 7.55, 7.81, 7.81, 8.08, 8.08, 8.44, 8.44, 8.65, 8.93, 8.55, 8.93, 9.1, 9.35, 9.35, 9.35, 9.35, 8.96, 9.2, 9.2, 9.2, 9.2, 9.2, 9.2, 8.8, 9.01, 8.91, 8.91, 8.91, 8.4, 8.4, 8.0, 8.0, 8.0, 8.72, 8.72, 8.22, 7.71, 7.31, 6.8, 6.8, 6.67, 6.67, 6.52, 6.13, 6.13, 5.95, 5.58, 5.36, 5.09, 5.09, 4.36, 3.33, 2.47, 1.27, 1.9, 2.24, 1.0, 0.0, 0.0, 0.0, 0.0, 0.0, 0.0, 0.0, 0.0, 2.53, 4.0, 8.01, 10.73, 9.39, 7.15, 4.38, 0.0, 0.0, 2.98, 5.49, 6.57, 5.75, 4.46, 5.81, 5.81, 5.81, 6.69, 6.69, 6.69, 6.97, 6.97, 6.97, 6.97, 6.97, 6.97, 6.97, 6.97, 7.55, 7.55, 7.55, 7.55, 7.55, 7.55, 7.55, 7.81, 8.08, 8.08, 8.08, 8.08, 8.29, 8.55, 8.55, 8.55, 8.55, 9.1, 9.35, 9.35, 8.96, 8.96, 8.96, 9.2, 9.2, 9.2, 9.2, 9.2, 8.8, 8.8, 8.68, 8.68, 8.28, 8.15, 8.15, 8.15, 7.76, 8.0, 8.4, 8.0, 7.81, 7.71, 7.31, 7.2, 6.8, 6.67, 6.67, 6.52, 6.23, 5.86, 5.86, 5.65, 5.72, 5.43, 5.06, 4.65, 4.16, 2.64, 1.08, 0.85, 1.0, 0.57, -0.76, -0.85, 0.0, 0.8, 0.0, 0.0, 0.0, 0.0, 1.27, 3.16, 5.6, 8.82, 8.46, 6.71, 4.92, 2.6, 0.0, 0.79, 2.41, 4.8, 6.13, 5.21, 2.84, 2.84, 2.84, 6.64, 6.64, 6.97, 6.97, 6.97, 6.97, 6.97, 6.97, 6.97, 6.97, 6.97, 7.55, 7.55, 7.55, 7.55, 7.55, 7.55, 7.55, 7.81, 8.08, 8.08, 8.08, 8.08, 8.08, 8.29, 8.55, 8.55, 8.55, 8.55, 8.96, 8.96, 8.96, 8.96, 8.96, 8.96, 9.2, 9.2, 9.2, 9.2, 8.8, 8.8, 8.68, 8.68, 8.28, 8.15, 8.15, 8.15, 7.76, 7.76, 8.0, 8.0, 7.48, 7.48, 7.08, 6.95, 6.56, 6.41, 6.41, 6.41, 6.23, 5.86, 5.86, 5.65, 5.38, 5.06, 5.06, 4.65, 4.65, 3.55, 1.3, 0.98, 0.65, 0.0, -0.65, -1.6, 0.0, 0.85, 0.65, 0.0, -0.66, 0.0, 0.57, 2.0, 4.75, 8.4, 9.26, 8.44, 6.71, 5.81, 3.39, 0.0, 0.0, 2.84, 4.8, 2.84, 2.21, 2.21, 2.21, 6.64, 6.64, 6.64, 6.97, 6.97, 6.97, 6.97, 6.97, 6.97, 6.97, 6.97, 7.55, 7.55, 7.55, 7.55, 7.55, 7.55, 7.55, 7.55, 8.08, 8.08, 8.08, 8.08, 8.08, 8.08, 8.55, 8.55, 8.55, 8.55, 8.55, 8.82, 8.96, 8.96, 8.96, 8.96, 8.96, 9.2, 9.2, 9.2, 8.8, 8.68, 8.68, 8.68, 8.28, 8.15, 8.15, 8.15, 8.15, 7.76, 7.76, 8.0, 7.48, 7.48, 7.08, 6.95, 6.95, 6.56, 6.41, 6.41, 6.23, 5.93, 5.93, 5.35, 5.35, 5.06, 5.06, 5.06, 4.95, 4.42, 2.51, 2.2, 0.61, 0.0, 0.0, 0.0, 0.0, 0.0, 0.0, -1.16, -1.13, -1.13, 0.0, 1.76, 4.43, 8.55, 10.89, 11.0, 9.39, 8.49, 8.05, 4.77, 1.4, 1.4, 2.8, 3.13, 2.53, 2.53, 2.53, 6.35, 6.35, 6.35, 6.64, 6.97, 6.97, 6.97, 6.97, 6.97, 6.97, 6.97, 6.97, 7.55, 7.55, 7.55, 7.55, 7.55, 7.55, 7.55, 7.55, 8.08, 8.08, 8.08, 8.08, 8.08, 8.08, 8.55, 8.55, 8.55, 8.55, 8.55, 8.55, 8.82, 8.82, 8.82, 8.82, 8.82, 8.82, 9.07, 8.68, 8.68, 8.68, 8.68, 8.28, 8.15, 8.15, 8.15, 8.15, 7.76, 7.76, 8.0, 7.48, 7.48, 7.34, 6.95, 6.95, 6.7, 6.15, 6.15, 5.93, 5.93, 5.93, 5.68, 5.68, 5.37, 5.0, 5.0, 5.0, 4.83, 4.03, 3.0, 0.61, 0.0, 0.0, 2.24, 0.0, 0.0, -0.54, -1.4, -1.33, -1.27, 0.0, 1.94, 4.36, 7.85, 10.89, 11.46, 10.73, 9.83, 9.83, 8.94, 6.07, 3.58, 3.13, 3.58, 4.92, 4.92, 4.92, 6.35, 6.35, 6.35, 6.35, 6.35, 6.67, 6.97, 6.97, 6.97, 6.97, 6.97, 6.97, 7.27, 7.55, 7.55, 7.55, 7.55, 7.55, 7.55, 7.55, 7.55, 8.08, 8.08, 8.08, 8.08, 8.08, 8.08, 8.37, 8.55, 8.55, 8.55, 8.55, 8.55, 8.82, 8.82, 8.82, 8.82, 8.82, 8.43, 8.43, 8.68, 8.68, 8.68, 8.28, 8.15, 8.15, 8.15, 8.15, 7.76, 7.76, 7.61, 7.23, 7.23, 7.07, 6.7, 6.7, 6.7, 6.51, 6.51, 5.93, 5.65, 5.65, 5.37, 5.37, 5.05, 4.67, 4.67, 5.3, 5.3, 4.56, 3.55, 1.88, 0.57, 0.0, 1.79, 0.0, 0.0, -1.2, -1.16, -1.13, 0.0, 0.0, 1.3, 3.55, 7.07, 9.75, 10.58, 10.28, 9.83, 9.39, 9.39, 7.6, 5.81, 4.92, 5.36, 6.26, 6.26, 6.26, 6.35, 6.35, 6.35, 6.35, 6.35, 6.67, 6.97, 6.97, 6.97, 6.97, 6.97, 6.97, 7.27, 7.55, 7.55, 7.55, 7.55, 7.55, 7.55, 7.55, 7.55, 8.08, 8.08, 8.08, 8.08, 8.08, 8.08, 8.37, 8.55, 8.55, 8.55, 8.55, 8.55, 8.82, 8.82, 8.82, 8.82, 8.82, 8.43, 8.43, 8.68, 8.68, 8.68, 8.28, 8.15, 8.15, 8.15, 8.15, 7.76, 7.76, 7.61, 7.23, 7.23, 7.07, 6.7, 6.7, 6.7, 6.51, 6.51, 5.93, 5.65, 5.65, 5.37, 5.37, 5.05, 4.67, 4.67, 5.3, 5.3, 4.56, 3.55, 1.88, 0.57, 0.0, 1.79, 0.0, -1.4, -1.2, -1.16, -1.13, 0.0, 0.0, 1.41, 3.79, 5.69, 8.0, 8.99, 9.79, 9.83, 9.83, 9.83, 9.32, 8.41, 7.52, 7.06, 7.5, 7.5, 7.5]}, {"header": {"dx": 0.06612293990616946, "dy": 0.0552356325346848, "nx": 98, "ny": 59, "la1": 35.046912555036876, "la2": 31.78801023549047, "lo1": -121.43107172385933, "lo2": -114.95102361305473, "refTime": "2026040708", "parameterCategory": 1, "parameterNumber": 3}, "data": [-9.08, -9.08, -9.08, -9.08, -9.08, -8.49, -8.79, -8.19, -7.9, -7.27, -6.96, -6.07, -3.82, -2.68, 0.0, 0.0, -1.2, -2.24, -2.86, -2.84, -2.41, -1.4, -0.71, -1.9, -3.13, -4.02, -4.0, 0.0, 0.0, 1.7, 3.72, 3.22, 3.79, 2.68, 1.66, 0.73, 0.0, 0.0, -0.73, -0.66, -0.59, -0.73, -1.23, -2.54, -4.6, -6.43, -8.74, -9.92, -10.35, -8.29, 1.3, 5.51, 6.28, 6.94, 7.89, 8.17, 7.51, 6.18, 5.21, 4.56, 3.81, 3.14, 2.99, 3.97, 4.74, 4.29, 3.91, 3.35, 3.81, 3.53, 3.55, 3.06, 2.33, 1.45, 1.39, 3.45, 3.67, 2.82, 1.97, -3.96, -3.25, -0.0, -0.0, -1.41, -1.98, -1.4, 0.0, 0.0, 0.0, -1.55, -3.91, -5.64, -7.08, -7.24, -7.51, -6.94, -5.14, -2.47, -9.37, -9.08, -9.08, -9.08, -8.73, -8.73, -8.44, -8.44, -8.15, -7.87, -6.87, -5.37, -3.6, -2.4, -2.53, -1.9, -0.95, -2.24, -3.2, -3.16, -3.48, -2.41, -1.49, -2.21, -3.58, -4.47, 0.0, 0.0, 3.13, 3.58, 0.0, 0.0, 2.21, 2.21, 0.76, 0.59, 0.0, 0.0, -0.7, -1.41, -1.41, -2.32, -4.96, -7.08, -10.12, -11.62, -12.47, -12.02, -11.19, -1.55, 5.73, 6.51, 6.79, 7.14, 7.06, 7.42, 6.73, 5.76, 5.06, 4.4, 3.65, 2.83, 3.6, 4.47, 5.06, 4.75, 4.71, 4.44, 3.81, 4.25, 4.17, 3.68, 2.42, 1.45, 1.47, 2.46, 3.51, 2.82, 1.97, -3.96, -3.25, -0.0, -0.0, -1.41, -1.98, -1.4, 0.0, 0.0, 0.0, -1.55, -3.91, -5.64, -7.08, -7.24, -7.51, -6.94, -5.14, -2.47, -9.37, -9.37, -8.73, -8.73, -8.73, -8.73, -8.65, -8.44, -8.37, -8.09, -7.44, -6.9, -3.6, -2.97, -1.9, -1.0, -1.49, -1.86, -3.13, -3.45, -3.78, -4.74, -3.16, -2.86, -3.58, 0.0, 0.0, 2.21, 2.68, -0.0, -1.9, -1.58, -1.9, 0.0, 0.85, 0.0, 0.0, 0.0, -0.78, -2.47, -4.03, -6.51, -9.8, -12.78, -14.42, -15.05, -14.99, -13.74, -4.58, 6.17, 6.98, 7.28, 7.21, 6.94, 6.25, 6.11, 5.59, 5.21, 4.4, 4.07, 3.36, 3.45, 4.22, 5.15, 5.69, 6.01, 6.11, 6.17, 6.59, 6.0, 6.08, 5.25, 3.18, 1.52, 0.0, 0.0, 0.81, 2.39, 1.62, 0.0, -7.27, -0.0, -2.4, -2.8, -0.79, -0.0, 0.0, 0.0, -0.79, -3.2, -5.41, -6.97, -7.82, -7.82, -6.84, -4.8, -1.52, -0.63, -9.01, -9.01, -9.01, -9.01, -9.01, -8.65, -8.65, -8.65, -8.37, -8.0, -7.72, -7.72, -4.98, -3.6, -2.98, -2.53, -2.53, -2.68, -2.5, -3.13, -3.72, -3.48, -5.59, -4.12, -3.14, -1.6, 0.0, 3.58, 2.53, 0.0, -2.4, -3.45, -3.49, -3.35, -2.53, -2.0, -2.16, -2.4, -4.34, -6.42, -8.46, -11.76, -13.07, -12.39, -12.09, -11.7, -10.75, -5.24, 5.36, 7.21, 7.06, 6.54, 6.0, 6.07, 6.08, 6.01, 4.96, 4.83, 4.92, 4.25, 3.49, 3.6, 4.87, 5.77, 6.73, 6.64, 6.95, 6.88, 7.82, 8.09, 7.49, 6.24, 4.05, 2.45, 0.0, -1.84, -1.45, -0.77, 0.0, 0.0, -8.49, -1.84, -1.73, -1.14, -0.59, -0.0, 0.0, -0.98, -2.8, -5.76, -6.56, -6.84, -7.48, -6.24, -1.67, 0.0, 0.0, 0.0, -9.01, -9.01, -9.01, -9.01, -8.65, -8.65, -8.65, -8.65, -8.55, -8.0, -7.9, -7.87, -4.98, -4.57, -3.83, -4.22, -3.58, -3.16, -2.5, -3.53, -3.45, -3.16, -3.16, -3.63, -3.15, -2.15, -1.74, -3.13, -3.13, -2.53, -3.13, -4.4, -7.03, -8.3, -9.39, -9.04, -9.04, -8.49, -9.89, -11.87, -12.14, -10.12, -7.44, -4.5, -3.11, -3.25, -2.23, 1.96, 5.43, 6.07, 5.69, 5.46, 5.46, 6.18, 6.11, 5.89, 4.96, 4.83, 4.92, 3.95, 3.06, 3.33, 5.06, 6.44, 7.02, 6.95, 6.53, 6.64, 7.59, 8.12, 7.49, 5.96, 6.54, 5.99, 3.04, -2.54, -3.48, -3.7, -1.54, 0.0, -4.92, -2.84, -3.49, -2.26, -1.27, -2.53, -2.84, -4.46, -6.67, -8.05, -6.94, -6.15, -7.59, 4.11, 3.35, 0.65, 0.0, -1.47, -9.01, -9.01, -9.01, -9.01, -8.65, -8.65, -8.65, -8.65, -8.93, -8.55, -8.27, -7.87, -5.2, -4.22, -4.22, -4.6, -4.6, -4.6, -4.84, -6.02, -6.57, -5.72, -5.15, -3.22, -2.3, -3.16, -3.22, -3.9, -4.02, -3.9, -3.35, -4.02, -6.61, -9.24, -11.18, -11.08, -11.36, -11.64, -11.87, -11.9, -10.09, -7.28, -2.73, -0.73, -0.74, -1.55, 0.0, 2.99, 4.95, 4.81, 4.54, 4.81, 5.49, 5.49, 5.37, 4.83, 4.12, 4.12, 3.88, 3.85, 3.06, 3.38, 5.43, 6.06, 6.32, 6.95, 6.53, 6.32, 6.01, 5.9, 4.93, 4.38, 6.24, 7.0, 5.49, 2.48, -4.0, -3.16, -0.63, 0.0, 0.0, -3.45, -4.19, -5.37, -3.84, -4.47, -6.94, -8.64, -9.67, -9.02, -7.48, -8.37, -8.91, 2.23, 1.9, -0.61, -2.18, -3.11, -9.01, -9.01, -9.01, -9.01, -8.65, -8.65, -9.01, -8.84, -9.1, -8.55, -8.43, -8.0, -5.43, -4.22, -4.65, -4.8, -4.84, -5.58, -5.82, -5.69, -4.41, -3.84, -5.69, -7.97, -6.91, -6.32, -7.4, -7.81, -7.52, -5.73, -3.58, -3.58, -2.53, -5.4, -8.8, -10.26, -11.36, -11.2, -8.75, -6.7, -7.4, -8.24, -9.2, -9.17, -8.68, -3.02, 1.73, 4.94, 5.24, 4.47, 4.74, 4.81, 5.82, 5.06, 5.06, 3.55, 3.69, 3.69, 2.9, 3.11, 2.99, 2.98, 4.43, 4.74, 5.49, 6.32, 6.04, 4.44, 3.4, 2.83, 1.76, 2.82, 2.53, 2.64, 1.78, 1.94, 1.25, 0.0, 1.84, 2.59, 0.0, -6.71, -7.42, -7.63, -8.01, -9.75, -11.21, -11.28, -10.98, -9.96, -9.57, -10.04, 1.3, 1.8, -0.0, -1.84, -3.8, -3.7, -9.01, -9.01, -9.01, -9.01, -8.65, -9.01, -9.21, -9.21, -9.48, -9.1, -9.2, -9.01, -6.28, -5.43, -5.24, -4.46, -4.81, -4.74, -4.46, -3.35, 0.0, 1.33, -0.85, -4.52, -9.2, -9.33, -9.6, -9.33, -7.37, -6.13, -4.65, -5.64, -7.15, -7.15, -8.6, -9.75, -10.49, -10.18, -8.73, -7.47, -5.95, -7.4, -10.79, -10.4, -3.83, 2.53, 4.6, 5.37, 6.01, 5.69, 4.19, 5.09, 5.43, 5.43, 5.37, 4.56, 4.71, 3.8, 3.06, 2.35, 2.4, 2.2, 2.07, 4.29, 4.98, 5.59, 4.56, 2.17, 0.0, 0.0, 0.89, 0.93, 0.0, -0.75, -0.84, 0.0, 2.81, 5.78, 4.81, 2.64, 0.82, -8.53, -9.39, -8.94, -10.26, -11.75, -11.57, -11.44, -10.66, -10.04, -10.6, 1.05, 1.41, -0.0, -3.6, -2.73, -3.69, -2.9, -9.01, -9.01, -9.01, -9.01, -9.01, -9.21, -9.21, -9.21, -9.21, -9.63, -10.0, -10.83, -9.75, -9.97, -8.56, -7.2, -7.6, -6.82, -4.19, -1.88, 0.0, 1.05, 1.84, -1.66, -4.92, -7.74, -7.31, -7.37, -7.13, -7.07, -9.97, -12.45, -13.86, -13.59, -11.14, -8.8, -10.05, -10.18, -8.4, -3.83, -2.21, -2.23, -2.23, -0.89, 2.24, 3.58, 2.97, 3.22, 5.05, 6.44, 7.37, 6.07, 6.08, 5.37, 5.59, 5.49, 4.5, 4.6, 3.95, 2.97, 2.23, 1.35, 2.68, 4.4, 4.98, 5.06, 3.81, 2.83, 0.96, 0.0, 0.0, 0.0, -0.74, -1.41, -0.74, 0.0, 0.89, 2.49, 2.39, 1.51, 1.65, -2.35, -9.33, -8.39, -9.18, -9.68, -9.6, -9.3, -8.68, -9.33, 2.6, 3.48, 0.7, -1.9, -4.0, -3.72, -3.79, -1.94, -9.21, -9.21, -9.21, -9.21, -9.21, -9.21, -9.21, -9.58, -9.76, -10.16, -11.08, -11.6, -10.91, -12.04, -11.95, -11.8, -12.53, -12.53, -12.27, -12.0, -10.65, -9.75, -7.33, -5.03, -7.47, -7.06, -6.57, -7.64, -9.67, -10.6, -12.07, -12.96, -12.07, -11.18, -11.18, -9.97, -7.28, -5.72, -2.5, 0.0, 0.0, 0.0, 1.34, 1.7, 1.7, 1.79, 2.12, 2.91, 4.24, 6.07, 6.7, 6.44, 5.72, 5.3, 5.49, 5.28, 5.41, 4.68, 3.07, 2.31, 1.54, 1.63, 4.83, 5.81, 6.16, 5.49, 4.2, 4.2, 2.11, 0.59, 0.0, 0.0, -0.68, -0.72, 0.0, 0.0, -0.85, -1.6, -1.48, -0.73, 0.0, 0.72, -4.71, -7.42, -6.58, -6.79, -7.03, -6.39, -5.03, 4.11, 5.09, 4.0, -0.0, -3.58, -4.22, -3.15, -3.64, -2.48, -9.21, -9.21, -9.21, -9.21, -9.21, -8.94, -9.58, -9.76, -10.13, -10.3, -11.22, -11.5, -11.5, -11.08, -10.43, -12.53, -13.23, -14.88, -15.45, -16.94, -17.43, -17.43, -16.43, -13.99, -11.98, -7.5, -3.83, -4.22, -6.99, -10.52, -10.73, -4.88, -2.24, -3.07, -5.67, -9.39, -8.4, -2.53, 0.0, 1.26, 0.0, 0.0, 1.34, 1.6, 1.6, 2.24, 2.6, 2.91, 3.82, 4.43, 3.82, 4.19, 3.22, 3.79, 4.6, 5.52, 5.2, 3.82, 2.37, 0.74, 0.77, 3.99, 6.7, 7.37, 7.63, 6.39, 5.64, 4.5, 3.69, 1.41, 0.73, 0.0, 0.0, 0.0, 0.0, -0.73, -2.28, -3.45, -4.07, -4.65, -3.47, -2.11, 0.0, -5.11, -5.73, -5.29, -4.19, -3.91, 0.0, 4.4, 0.0, -1.8, -4.0, -4.24, -3.49, -3.43, -3.43, -3.14, -9.21, -9.21, -9.21, -8.94, -8.94, -9.3, -9.3, -9.86, -9.86, -10.41, -10.96, -11.5, -11.44, -11.07, -9.37, -8.65, -7.72, -9.35, -11.72, -13.86, -13.01, -11.08, -9.83, -10.28, -6.26, -2.24, -1.6, -0.4, -0.0, -2.23, -3.32, -0.8, 1.58, 0.8, -2.24, -3.58, -3.51, -0.85, -0.0, -0.0, -0.0, 1.79, 1.79, 2.68, 2.97, 2.68, 2.0, 1.26, 2.23, 1.9, 0.85, 0.0, 0.0, 0.63, 1.52, 2.23, 2.31, 1.5, 0.0, -0.73, 2.8, 7.4, 8.29, 7.55, 8.17, 6.32, 5.76, 6.09, 5.09, 3.02, 1.36, 0.71, 0.0, 0.0, 0.0, -0.75, -2.21, -4.0, -5.39, -6.94, -6.1, -3.82, -1.55, 0.0, -1.76, -5.06, -6.13, -3.48, 3.48, 3.48, 0.0, -4.66, -4.24, -4.0, -3.16, -3.9, -3.48, -3.07, -9.21, -9.21, -9.21, -8.94, -9.3, -9.3, -9.5, -9.86, -10.23, -10.41, -10.51, -11.07, -11.62, -11.52, -9.72, -7.3, -5.36, -5.36, -5.72, -6.98, -6.2, -3.53, -1.75, 0.0, 0.61, 0.0, 0.0, 1.24, 1.7, 1.6, -0.0, 0.54, 1.24, 0.57, 0.6, 0.65, -0.0, -0.0, -0.0, -0.0, 1.4, 1.49, 2.23, 3.07, 2.54, 2.0, 0.0, -1.2, -1.86, -2.8, -3.39, -3.82, -4.27, -5.72, -6.87, -6.01, -3.17, -1.02, -2.28, -0.57, 4.92, 6.71, 7.55, 7.52, 6.9, 3.0, 2.72, 4.6, 4.4, 3.19, 2.95, 3.11, 3.06, 1.44, 0.0, -1.45, -2.95, -4.6, -5.7, -5.52, -4.02, -3.79, -4.4, -4.0, 0.0, 0.0, -4.8, -6.79, 0.0, 4.47, 2.84, -3.58, -4.02, -3.83, -4.29, -3.64, -2.51, -2.98, -9.21, -9.21, -8.94, -8.94, -9.3, -9.3, -9.86, -9.86, -9.94, -10.15, -10.51, -11.07, -11.16, -11.23, -10.65, -8.85, -6.98, -6.08, -5.69, -5.67, -4.68, -2.93, -1.2, 0.0, 0.0, 0.0, -0.64, -0.69, 0.0, 0.6, 1.13, 0.54, -0.0, -0.0, -0.0, 0.65, 0.51, 0.51, 0.59, 1.27, 1.13, 1.33, 0.85, 1.58, 2.8, 0.0, -1.34, -2.12, -3.74, -4.85, -6.17, -9.16, -12.72, -12.79, -11.76, -11.28, -9.16, -5.69, -5.21, 0.6, 3.45, 4.38, 5.81, 5.94, 0.0, -0.79, 0.0, 0.0, 0.0, 2.99, 6.42, 5.95, 4.5, 1.5, 0.0, -2.34, -3.16, -2.18, -1.35, -1.66, -3.16, -4.12, -6.17, -6.14, -3.04, -1.66, -2.13, -5.7, -0.0, 4.92, 4.02, -3.13, -4.02, -4.6, -4.11, -2.48, -2.41, -2.98, -9.21, -9.21, -8.94, -9.3, -9.3, -9.3, -9.86, -9.59, -9.94, -9.94, -10.51, -10.59, -10.8, -11.16, -10.65, -10.06, -8.87, -7.61, -6.7, -6.29, -5.83, -4.62, -3.53, -2.48, -2.4, -1.83, -1.28, -1.26, -0.64, 0.0, 0.0, 0.8, -0.0, -0.95, -0.0, -0.0, 1.26, 1.24, 1.98, 1.8, 2.07, 1.13, -0.0, -0.0, 2.21, 3.13, 0.0, -1.34, -2.12, -3.95, -5.09, -8.0, -6.32, -2.5, -1.86, -3.51, -5.81, -7.73, -5.3, 0.8, 1.9, 1.2, 2.24, 0.0, -2.12, -3.32, -4.11, -4.47, 0.85, 4.15, 5.43, 4.6, 2.28, 0.0, -1.45, -2.28, 0.0, 0.7, 1.08, 0.0, -3.47, -5.24, -4.94, -4.73, -5.04, -5.6, -3.46, -3.07, -7.6, 0.0, 6.71, -4.47, -3.58, -3.82, -3.14, -3.82, -3.2, -3.2, -9.21, -9.21, -8.94, -9.3, -9.3, -9.3, -9.37, -9.59, -9.94, -9.94, -10.23, -10.23, -10.59, -10.59, -10.3, -10.09, -9.19, -8.58, -7.33, -6.53, -5.83, -5.11, -4.2, -3.04, -2.56, -1.25, -0.63, -0.64, -0.65, -1.36, -0.72, -0.76, -1.26, -0.89, 0.0, 1.79, 1.34, 2.6, 2.53, 2.76, 1.84, 1.24, -0.0, 1.4, 1.6, 3.6, 3.6, 2.21, 0.0, -0.63, -2.23, -1.74, 0.0, 1.6, 1.79, 0.0, -2.98, -4.29, -1.74, 0.89, -0.0, -0.0, -0.0, 0.0, -1.34, -3.32, -5.02, -3.58, 2.12, 2.86, 1.35, 0.0, -0.78, -1.54, -2.28, 0.0, 3.83, 5.4, 4.46, 2.6, 0.0, -5.37, -4.75, -3.4, -3.0, -2.98, -5.18, -2.83, -1.67, 0.0, 0.0, -3.58, -3.07, -2.91, -3.39, -3.58, -3.53, -3.53, -9.01, -8.94, -8.94, -9.3, -9.3, -9.02, -9.37, -9.37, -9.94, -9.66, -10.01, -10.01, -10.23, -10.23, -10.06, -10.06, -9.8, -8.87, -7.59, -6.27, -5.14, -4.62, -4.2, -2.37, -0.6, 0.0, 0.0, -0.62, -1.27, -2.62, -2.65, -2.54, -1.88, -1.0, 0.0, 1.34, 1.7, 2.21, 2.53, 1.98, 0.99, 0.71, 1.6, 1.9, 1.6, 2.53, 2.53, 2.21, 3.13, 3.13, 2.68, 2.68, 3.13, 3.13, 0.0, 0.0, 0.0, 2.53, 3.58, 0.0, 0.0, -0.0, -0.0, 0.0, 0.0, -0.95, -3.13, -3.22, -2.0, -0.76, -2.06, -4.15, -5.48, -4.58, -1.23, 3.47, 5.81, 6.58, 5.94, 5.6, 3.0, 0.0, -2.99, -3.17, -3.8, -3.22, -2.51, 0.0, -0.81, -2.54, -3.32, -5.36, -3.13, -3.07, -3.47, -3.58, -3.58, -3.58, -9.01, -8.73, -8.94, -9.3, -9.3, -9.02, -9.37, -9.37, -9.42, -9.66, -9.66, -10.01, -10.01, -10.01, -10.01, -9.46, -9.8, -9.5, -7.59, -5.83, -4.81, -4.58, -4.07, -2.32, 0.0, 0.0, -0.6, -1.86, -2.5, -3.93, -4.7, -4.73, -3.75, -2.32, -1.8, 0.0, 1.2, 0.65, 0.65, -0.0, -0.0, -0.0, -0.0, -0.0, -0.0, 2.21, 3.13, 3.13, 3.13, 3.13, 3.58, 4.02, 4.02, 4.02, 4.02, 0.0, 4.47, 5.36, 0.0, 0.0, 0.0, 0.0, 2.84, 2.53, 3.16, 1.6, -1.79, -3.97, -9.83, -10.7, -9.53, -8.22, -7.22, -3.79, 0.0, 2.21, 3.51, 5.36, 5.6, 2.6, 0.0, 0.0, -2.26, -4.66, -5.69, -4.34, -3.6, -1.16, -2.88, -4.46, -5.21, -2.8, -2.98, -3.07, -3.07, -3.58, -3.58, -3.58, -9.01, -8.73, -8.73, -9.3, -9.02, -9.02, -9.37, -9.37, -9.08, -9.42, -9.42, -9.66, -9.66, -9.66, -10.01, -9.23, -9.46, -8.56, -6.97, -5.4, -4.74, -5.85, -5.73, -4.58, -3.42, -3.58, -3.21, -4.4, -5.63, -6.0, -6.87, -6.53, -5.62, -4.5, -3.26, -2.3, 0.0, 0.87, -0.0, -0.65, -0.65, -0.0, -0.0, -0.0, -0.0, 1.9, 3.13, 3.58, 3.58, 3.58, 4.02, 4.47, 4.47, 4.47, 5.36, 5.81, 0.0, 0.0, 0.0, 0.0, 0.0, 0.0, 2.84, 1.86, 3.16, 2.6, 0.0, -3.07, -8.14, -9.8, -6.55, -4.68, -3.39, -1.45, 0.0, -0.0, 2.24, 2.53, 0.0, 0.0, -0.96, -2.09, -3.7, -5.72, -8.18, -8.22, -7.53, -4.66, -6.58, -6.32, -4.43, -3.35, -2.53, -3.39, -3.09, -3.53, -3.82, -3.82, -8.73, -8.73, -8.73, -9.08, -8.78, -9.02, -9.02, -9.37, -9.08, -9.08, -9.42, -9.42, -9.42, -9.42, -9.72, -9.13, -8.82, -8.45, -7.27, -6.31, -6.79, -7.66, -8.81, -8.56, -10.01, -9.67, -9.09, -8.9, -9.23, -8.66, -7.82, -7.22, -6.17, -5.26, -4.61, -4.36, -3.49, 0.0, -0.0, -0.96, -1.08, -0.0, -0.0, 1.8, 2.53, 4.02, 3.58, 3.58, 3.58, 3.58, 3.2, 3.82, 4.47, 4.92, 2.68, 3.82, 3.2, 0.0, -1.6, -3.16, 0.0, 0.0, 1.2, 2.84, 2.21, 1.49, -0.0, -0.57, -0.66, 0.0, 1.67, 3.44, 4.55, 2.93, 0.0, -5.86, -6.9, -6.01, -3.68, -1.98, -0.95, -1.95, -1.94, -3.35, -6.01, -6.79, -3.2, 0.0, -2.84, -3.22, -4.11, -6.07, -4.46, -4.0, -3.98, -3.87, -4.11, -4.11, -8.73, -8.73, -8.73, -9.08, -8.78, -8.78, -8.78, -8.82, -9.08, -9.08, -9.08, -9.42, -9.42, -9.13, -9.72, -9.13, -8.5, -8.78, -9.71, -10.18, -10.98, -10.76, -11.1, -11.08, -11.7, -11.68, -10.02, -10.01, -9.06, -7.81, -6.87, -6.39, -5.68, -5.68, -4.75, -4.42, -4.11, -4.11, -6.26, -0.0, -0.0, -0.0, -0.0, 6.26, 5.36, 0.0, 0.0, 0.0, 3.13, 2.8, 2.8, 3.6, 4.47, 4.47, 5.36, 2.98, 4.43, 1.98, -4.92, 0.0, -0.0, 1.4, 1.13, -0.0, 0.71, -0.0, -0.0, 2.68, 2.84, 6.06, 8.65, 9.4, 7.82, 3.41, -2.07, -9.27, -11.8, -10.62, -8.37, -4.75, -1.84, -0.89, 0.0, 0.0, 0.0, 0.0, 3.13, 3.47, 0.88, 0.0, -3.6, -7.2, -7.03, -5.02, -4.34, -4.77, -4.6, -4.6, -8.73, -8.73, -8.73, -8.73, -8.78, -8.78, -8.78, -8.5, -8.82, -8.82, -8.82, -9.08, -9.13, -9.13, -9.13, -9.13, -9.42, -9.46, -10.99, -11.99, -11.1, -10.47, -10.13, -10.13, -10.71, -9.73, -8.0, -6.76, -4.83, -3.97, -3.72, -4.89, -4.36, -4.42, -4.39, -4.42, -4.43, -3.48, -4.11, -2.8, 0.0, 0.0, 0.0, 6.26, 5.81, 4.47, 0.0, 0.0, 3.13, 2.21, 2.8, 3.6, 4.02, 4.47, 4.92, 5.51, 5.64, 7.6, -0.0, -0.0, 0.71, 1.49, 1.24, 0.57, 1.2, 1.4, -0.0, -0.0, 3.13, 3.58, 5.26, 7.47, 6.2, 3.1, -7.44, -12.7, -14.79, -14.22, -11.99, -9.2, -5.15, -2.35, -0.83, 0.0, 0.95, 1.19, 2.84, 0.0, -2.0, -0.7, -3.15, -6.25, -6.13, -4.6, -4.3, -4.3, -4.11, -4.11, -8.73, -8.73, -8.73, -8.45, -8.78, -8.78, -8.78, -8.5, -8.82, -8.82, -8.82, -8.82, -8.85, -8.85, -9.13, -9.46, -9.46, -10.09, -10.75, -11.1, -9.84, -8.2, -6.94, -7.59, -8.33, -7.96, -7.03, -5.5, -3.2, -2.47, -1.95, -2.12, -2.99, -2.98, -3.12, -3.78, -3.49, -3.15, -2.53, -1.41, 0.0, 0.0, 0.0, 2.8, 4.8, 4.4, 4.92, 0.0, 2.68, 3.13, 3.58, 3.58, 4.02, 4.47, 4.92, 5.36, 4.47, 4.66, -0.0, -0.0, 1.9, 1.58, 1.6, 2.0, 3.2, 4.24, 3.58, 0.0, 0.0, 1.6, -0.0, -0.95, 0.0, 0.0, -3.04, -9.72, -13.49, -15.0, -14.47, -12.87, -9.2, -5.69, -2.47, -1.47, -1.6, -2.2, -3.72, -3.83, -5.69, -7.27, -4.95, -4.4, -3.98, -3.54, -3.98, -4.3, -4.27, -4.27, -8.73, -8.73, -8.73, -8.73, -8.45, -8.78, -8.78, -8.5, -8.5, -8.82, -8.82, -8.82, -8.53, -8.85, -8.85, -9.46, -9.48, -10.12, -10.13, -10.13, -9.09, -7.53, -6.25, -6.04, -6.46, -7.1, -6.6, -5.96, -5.03, -4.02, -2.76, -2.17, -1.65, -1.63, -2.47, -3.11, -2.88, -2.98, -2.4, -1.99, -1.14, 0.0, 0.0, 0.0, 1.84, 3.48, 3.79, 0.0, 2.53, 4.02, 4.02, 4.02, 4.02, 4.02, 4.47, 4.47, 2.24, 1.86, -0.0, 0.0, 3.13, -0.0, 0.0, 3.13, 4.24, 4.92, 4.02, 0.0, 0.0, 0.0, -1.7, -5.44, -3.02, 0.0, -0.71, -3.58, -8.82, -11.72, -13.28, -13.47, -11.68, -8.43, -6.39, -5.24, -4.87, -5.95, -6.88, -8.48, -7.81, -6.13, -5.01, -2.4, -3.35, -3.95, -3.58, -4.52, -5.2, -5.2, -8.73, -8.73, -8.73, -8.45, -8.45, -8.45, -8.78, -8.5, -8.5, -8.82, -8.82, -8.53, -8.53, -8.85, -8.85, -9.17, -9.5, -9.82, -9.84, -9.22, -8.85, -8.18, -7.1, -6.64, -6.43, -6.2, -6.43, -5.96, -5.69, -5.2, -3.96, -3.33, -2.06, -1.36, -1.52, -1.75, -1.84, -2.82, -1.84, -1.98, -1.1, 0.0, 0.0, 0.0, 1.23, 1.41, 1.41, 1.3, 2.2, 2.2, 3.16, 4.4, 4.02, 3.58, 3.58, 3.58, 3.58, 1.6, -0.0, 0.0, 0.0, 0.0, -0.0, 2.8, 4.34, 4.47, 4.02, 4.47, 3.58, -1.34, -4.0, -5.06, -3.39, 0.0, 0.0, 0.0, 0.0, -2.53, -8.3, -11.45, -12.72, -11.2, -9.43, -7.68, -6.18, -6.32, -7.81, -7.81, -4.92, -0.0, -0.0, 1.95, -2.6, -4.92, -3.97, -5.02, -4.93, -4.93, -8.73, -8.73, -8.45, -8.45, -8.45, -8.45, -8.78, -8.22, -8.22, -8.53, -8.53, -8.53, -8.53, -8.85, -8.56, -8.87, -9.19, -9.21, -9.21, -8.86, -8.85, -8.46, -7.73, -7.73, -6.82, -6.6, -5.96, -5.8, -5.74, -5.55, -4.86, -3.82, -3.15, -2.49, -1.93, -1.26, -1.4, -1.52, -1.75, -0.94, -0.94, 0.0, 0.0, 1.07, 1.01, 1.1, 2.12, 1.98, 1.98, 1.84, 1.99, 3.48, 4.0, 3.58, 3.58, 3.58, 3.13, 2.4, 0.63, 0.0, 0.0, 0.0, 0.0, 2.4, 2.68, 3.58, 4.02, 3.58, -0.0, -1.34, -3.39, -4.43, -2.99, -0.77, 1.61, 4.65, 5.1, 0.0, -3.49, -8.6, -12.04, -12.99, -11.16, -8.58, -4.81, -3.84, -5.6, -4.02, -0.0, -0.66, -2.41, -0.0, -7.6, -6.0, -5.51, -4.0, -4.27, -4.27, -8.73, -8.73, -8.45, -8.45, -8.45, -8.19, -8.52, -8.22, -8.22, -8.22, -8.53, -8.24, -8.24, -8.85, -8.56, -8.58, -8.87, -8.87, -8.59, -8.86, -8.49, -8.46, -8.18, -7.73, -7.03, -6.36, -5.92, -5.11, -5.32, -4.86, -4.9, -4.21, -4.05, -3.53, -3.39, -2.9, -2.25, -1.81, -1.24, -0.64, -0.69, 0.0, 0.0, 0.89, 0.94, 1.84, 1.84, 1.96, 1.84, 1.72, 2.16, 2.2, 3.16, 2.98, 1.6, 1.34, 2.24, 1.58, 1.2, 0.0, -2.24, -2.53, 0.0, 1.79, 4.47, 2.24, 2.24, 0.95, -0.6, -1.79, -3.32, -3.84, -4.03, -2.35, 1.54, 4.4, 4.46, 2.65, -1.8, -6.64, -10.18, -13.2, -12.36, -9.1, -5.95, -5.75, -4.24, 1.6, -0.0, -1.84, -4.0, -4.47, -7.2, -7.28, -5.24, -4.09, -3.72, -3.72, -8.73, -8.73, -8.45, -8.45, -8.45, -8.19, -8.19, -8.22, -8.22, -8.22, -8.53, -8.24, -8.24, -8.24, -8.56, -8.58, -8.87, -8.59, -8.87, -8.59, -8.49, -8.2, -8.18, -7.5, -7.03, -6.36, -5.92, -5.25, -5.11, -4.65, -4.17, -4.02, -4.05, -3.39, -3.57, -3.42, -2.9, -2.39, -1.73, -1.24, -0.64, -0.69, 0.0, 0.77, 0.73, 1.44, 0.85, 0.84, 0.89, 0.95, 0.96, 2.4, 2.48, 3.35, 2.97, 1.34, 1.79, 0.95, 1.2, 1.34, 0.0, -3.13, 0.0, 2.54, 2.54, 4.92, 1.79, -0.0, -0.6, -1.79, -2.4, -3.14, -5.06, -4.29, -2.0, -0.76, -0.73, 0.0, -0.59, -4.41, -7.74, -11.99, -13.1, -9.67, -8.22, -7.6, -2.48, -0.0, -1.13, -3.07, -4.3, -5.36, -5.16, -6.7, -6.7, -5.15, -4.46, -4.46, -8.73, -8.73, -8.45, -8.45, -8.19, -8.19, -8.19, -8.22, -8.22, -8.22, -8.22, -8.24, -8.24, -7.95, -8.24, -8.24, -8.24, -8.23, -8.23, -8.22, -8.22, -8.2, -7.53, -7.76, -7.06, -6.4, -5.92, -5.25, -5.28, -4.62, -4.13, -3.99, -4.02, -3.53, -3.39, -3.42, -2.9, -2.93, -2.39, -1.93, -1.33, -0.69, -0.71, 0.0, 0.0, 2.0, 1.52, 0.0, 0.0, 0.0, 1.14, 1.7, 3.48, 4.0, 3.2, 3.13, 1.34, 0.63, 1.6, 1.26, 0.6, 0.0, 3.13, 1.79, 2.68, 2.68, 2.68, -0.0, -0.0, -1.26, -2.12, -2.0, -3.6, -5.69, -9.05, -8.27, -6.14, -2.8, -1.8, -2.8, -3.45, -10.48, -12.39, -11.18, -8.15, -5.09, -2.21, -3.82, -4.82, -4.87, -5.32, -6.26, -6.71, -6.28, -6.6, -6.55, -5.06, -5.06, -8.73, -8.73, -8.45, -8.45, -8.19, -8.19, -8.19, -7.9, -8.22, -8.22, -8.22, -7.93, -8.24, -7.95, -8.24, -7.96, -8.24, -8.23, -8.23, -7.96, -8.22, -7.95, -7.55, -7.53, -7.1, -6.4, -5.92, -5.25, -4.58, -4.62, -4.62, -4.13, -3.99, -4.02, -3.53, -3.39, -2.9, -2.9, -2.49, -2.53, -2.06, -1.43, -1.36, -0.73, 0.0, 0.0, 1.2, 0.0, -0.88, 0.0, 0.0, 4.92, 4.4, 4.47, 4.02, 3.58, 2.68, 1.79, 1.26, 1.24, 0.71, -0.0, 0.0, -0.0, 1.7, 1.79, 2.4, 0.89, -0.0, -2.0, -3.07, -3.07, -1.67, -2.6, -8.42, -10.18, -8.53, -6.01, -2.48, -1.88, -2.86, -8.49, -10.68, -11.44, -9.56, -4.74, -3.35, -3.9, -4.92, -6.71, -7.55, -8.01, -8.49, -7.37, -7.53, -7.6, -6.44, -6.44, -8.73, -8.73, -8.45, -8.45, -8.19, -8.19, -8.19, -7.9, -7.9, -8.22, -8.22, -8.22, -7.93, -7.95, -7.95, -7.96, -8.24, -7.96, -8.23, -7.96, -7.83, -7.55, -7.55, -7.13, -6.88, -6.88, -6.43, -5.77, -4.77, -4.07, -4.58, -4.77, -4.65, -3.99, -3.5, -3.37, -2.87, -2.9, -2.49, -2.65, -2.06, -2.06, -1.43, -1.4, -1.49, -1.32, -1.2, 0.0, 0.0, 0.0, 0.0, 2.53, 3.6, 4.47, 4.02, 3.58, 3.13, 2.68, 1.9, 1.24, -0.0, -1.0, -0.6, 0.6, 1.7, 1.7, 0.63, -0.89, -1.58, -2.21, -3.82, -3.82, -2.0, 0.0, -1.66, -7.82, -9.11, -6.79, -3.64, -2.73, -2.84, -4.8, -9.3, -10.55, -9.85, -7.85, -5.76, -3.22, -4.09, -4.02, -4.92, -4.92, -6.26, -7.6, -8.19, -7.98, -7.33, -7.33, -8.73, -8.73, -8.45, -8.19, -8.19, -8.19, -8.19, -7.9, -7.9, -7.9, -8.22, -8.22, -7.93, -7.95, -7.95, -7.96, -7.6, -7.59, -7.59, -7.59, -7.57, -7.57, -7.55, -7.13, -7.13, -6.68, -6.46, -5.8, -4.65, -4.65, -4.58, -4.58, -4.62, -3.99, -4.02, -3.37, -2.84, -2.87, -2.35, -2.49, -1.93, -2.06, -1.33, -1.36, -1.47, -2.28, -2.28, -0.73, 0.0, 0.0, 0.0, 0.0, 1.13, 1.98, 2.21, 3.13, 2.68, 2.12, 1.58, 0.61, -0.0, -0.71, -0.0, 1.2, 2.17, 2.6, 1.34, -1.79, -2.86, -2.41, -3.07, -3.58, -3.04, -1.18, 0.0, -2.5, -7.5, -7.72, -5.94, -5.46, -3.69, -3.48, -3.93, -7.59, -8.72, -8.66, -7.12, -5.76, -2.32, -4.11, -4.02, -2.21, -3.13, -3.98, -7.94, -7.76, -6.79, -6.79, -8.73, -8.73, -8.45, -8.19, -8.19, -8.19, -8.19, -7.9, -7.9, -7.9, -7.9, -8.22, -7.61, -7.61, -7.61, -7.33, -7.6, -7.6, -7.59, -7.59, -7.57, -7.57, -6.9, -6.9, -6.9, -6.46, -6.46, -6.46, -6.25, -5.48, -5.17, -4.48, -4.48, -4.17, -4.02, -3.37, -3.37, -2.87, -2.33, -2.35, -1.89, -1.93, -2.06, -1.33, -1.43, -1.43, -1.5, -0.69, 0.0, 0.0, 0.0, 0.0, 0.73, 0.79, 1.33, 1.4, 1.49, 2.24, 1.58, 0.65, -0.61, -0.0, 1.58, 1.7, 2.6, 2.91, 2.6, 0.89, -1.9, -1.49, -1.6, -2.12, -3.58, -4.46, -3.96, -2.37, -2.7, -3.07, -3.72, -3.91, -3.06, -1.39, 0.0, -1.25, -4.07, -5.51, -5.6, -5.4, -2.46, -2.26, 0.0, 2.8, 1.9, -3.58, -3.48, -6.36, -6.0, -6.0, -8.73, -8.73, -8.73, -8.19, -8.19, -8.19, -8.19, -7.9, -7.9, -7.9, -7.9, -7.6, -7.61, -7.61, -7.61, -7.61, -7.33, -7.6, -7.33, -7.59, -7.32, -7.16, -7.16, -6.9, -6.9, -6.46, -6.46, -6.46, -6.88, -5.77, -5.14, -4.51, -4.02, -4.02, -4.02, -3.37, -3.53, -2.87, -2.87, -2.35, -2.35, -1.81, -1.93, -1.39, -1.33, -1.39, -1.5, -0.72, -0.74, 0.0, 0.0, 0.0, 0.0, 0.0, 0.81, 0.73, 0.7, 1.74, 2.24, 1.58, -0.0, 1.26, 1.26, 2.0, 2.0, 2.4, 2.4, 1.86, 0.0, 0.0, -0.95, -1.6, -3.51, -7.69, -8.56, -4.91, -0.89, 0.0, 0.0, 0.0, 0.0, 0.0, -1.16, -1.28, -1.44, -3.68, -3.68, -4.24, -2.42, -1.11, 0.0, 1.58, 1.79, 0.0, 0.0, -2.12, 0.0, 0.0, -8.73, -8.73, -8.73, -8.19, -8.19, -8.19, -8.19, -7.9, -7.9, -7.9, -7.9, -7.6, -7.61, -7.61, -7.61, -7.61, -7.33, -7.6, -7.6, -7.59, -7.59, -6.92, -6.92, -7.16, -6.9, -6.46, -6.46, -6.46, -6.43, -5.77, -5.32, -4.68, -4.68, -4.02, -4.02, -3.53, -3.53, -2.87, -2.87, -2.35, -2.35, -1.81, -1.93, -1.3, -1.3, -1.39, -1.39, -1.43, -0.72, -0.74, -0.77, 0.0, 0.0, 0.0, 0.0, 0.0, 0.0, 0.79, 1.13, 2.68, 1.58, 1.58, 2.0, 2.0, 2.0, 1.58, 1.58, 1.26, 0.6, -0.0, -1.49, -2.68, -3.22, -7.08, -8.05, -4.98, 0.0, 4.99, 5.8, 2.81, 0.0, -1.84, -3.82, -3.6, -2.72, -2.9, -2.89, -1.61, 0.0, 0.0, 0.63, 1.49, 1.2, 0.0, 0.0, 0.0, 0.0, 0.0, -8.38, -8.38, -8.38, -8.15, -8.19, -8.19, -8.19, -7.9, -7.9, -7.9, -7.9, -7.6, -7.61, -7.61, -7.61, -7.33, -7.61, -7.6, -7.6, -7.33, -7.59, -7.19, -6.92, -6.92, -6.92, -6.25, -6.46, -6.46, -6.46, -5.8, -5.8, -5.14, -5.17, -4.51, -4.02, -3.53, -3.53, -3.39, -3.03, -2.9, -2.35, -1.81, -1.73, -1.3, -1.3, -1.36, -1.36, -1.39, -1.43, -0.78, -0.81, -0.85, 0.0, 0.0, 0.0, 0.0, 0.0, 0.0, 0.0, 2.21, 3.13, 2.23, 1.0, 1.26, 1.2, 0.0, 1.26, 1.86, 1.26, -0.0, -1.2, -2.24, -2.21, -2.39, -3.23, -2.53, 0.0, 3.34, 2.43, 0.74, -0.73, -2.44, -4.36, -4.8, -3.39, -1.58, -1.58, 0.0, 0.0, 0.67, 1.47, 1.55, 0.98, 0.0, -2.53, -2.2, -1.98, -1.98, -8.38, -8.38, -8.15, -8.15, -7.86, -8.19, -8.19, -8.19, -7.9, -7.9, -7.9, -7.9, -7.61, -7.61, -7.61, -7.33, -7.61, -7.33, -7.6, -7.33, -7.33, -7.19, -6.92, -6.92, -6.92, -6.5, -6.25, -6.25, -6.25, -5.8, -5.8, -5.83, -5.17, -4.68, -4.51, -4.21, -3.53, -3.53, -3.03, -3.03, -2.49, -2.39, -1.84, -0.89, -0.64, -0.65, -1.36, -1.45, -1.5, -1.54, -1.6, -0.85, -0.89, 0.0, 0.0, 0.0, 0.0, 0.0, 0.0, 0.87, 2.53, 3.58, 1.58, 1.26, 0.63, 2.24, 1.7, 2.4, 2.0, 1.2, -0.0, -0.95, 0.0, 0.0, 0.0, -2.45, -3.53, -3.96, -3.98, -4.42, -3.41, -2.21, -2.21, -4.14, -3.6, -1.32, 0.0, 0.0, 0.7, 1.47, 1.41, 1.47, 0.73, 0.0, -3.2, -3.16, -2.6, -1.84, -8.38, -8.38, -8.15, -8.15, -7.86, -7.86, -8.19, -8.19, -7.9, -7.9, -7.9, -7.9, -8.22, -7.61, -7.61, -7.61, -7.61, -7.33, -7.6, -7.6, -7.33, -6.94, -7.19, -6.92, -6.92, -6.5, -6.5, -6.25, -5.8, -5.8, -5.83, -5.83, -5.17, -5.2, -4.72, -4.21, -4.05, -3.53, -3.72, -3.03, -3.07, -2.39, -2.3, -0.85, 0.0, -0.64, -1.39, -2.1, -2.31, -1.62, -1.6, -1.67, -0.89, -0.84, -0.94, 0.0, 0.0, 0.0, 0.0, 0.0, 0.98, 2.53, 3.13, 0.95, 0.63, 2.24, 2.0, 2.12, 2.12, 1.79, 0.0, -0.0, -0.89, -0.82, -0.79, -1.61, -4.25, -7.51, -8.35, -7.67, -4.94, -2.76, -2.31, -1.84, 0.0, 0.0, 0.7, 0.76, 1.47, 1.3, 1.3, 1.3, 1.47, 0.0, -1.55, -3.16, -2.95, -2.6, -8.38, -8.38, -8.15, -8.15, -7.86, -7.86, -8.19, -8.19, -7.9, -7.9, -7.9, -7.9, -8.22, -7.93, -7.61, -7.61, -7.33, -7.61, -7.33, -7.6, -7.6, -6.94, -6.94, -6.94, -6.92, -6.5, -6.5, -6.5, -6.04, -5.83, -5.83, -5.17, -5.4, -5.2, -4.54, -4.54, -4.05, -4.05, -3.72, -3.03, -3.2, -2.49, -2.42, -2.33, -1.75, -1.33, -2.22, -3.07, -2.31, -2.28, -2.35, -1.67, -1.75, -1.65, -0.84, -0.79, -0.83, 0.0, 0.0, 0.0, 0.0, 1.27, 2.21, 2.68, 2.24, 2.68, 0.95, 0.95, 1.7, 1.79, 1.34, -0.95, -2.68, -2.95, -1.07, 1.6, 0.79, -2.35, -5.99, -6.8, -5.4, -3.53, -2.12, 0.0, 0.81, 0.96, 1.84, 1.84, 1.52, 1.52, 0.67, 0.67, 0.72, 0.89, 0.0, -1.3, -3.22, -2.95, -8.38, -8.38, -8.15, -8.15, -8.15, -7.86, -7.86, -8.19, -8.19, -7.9, -7.9, -7.9, -8.22, -7.93, -7.93, -7.61, -7.33, -7.61, -7.33, -7.33, -7.6, -7.22, -6.94, -6.94, -6.94, -6.27, -6.27, -6.27, -5.83, -5.83, -5.17, -5.17, -5.2, -5.2, -4.54, -4.76, -4.76, -4.26, -3.72, -3.57, -3.2, -3.07, -3.11, -2.97, -3.11, -3.06, -2.88, -2.11, -2.06, -2.23, -1.52, -1.67, -1.75, -1.65, -1.65, -1.55, -0.74, -0.72, -0.76, 0.0, 0.0, 0.0, 0.0, 2.53, 0.0, 0.0, 1.79, 2.21, 1.6, 1.34, 1.34, -1.79, -3.51, -4.15, -2.07, 0.0, 2.44, 0.76, -1.68, -4.74, -3.11, -1.76, -0.7, 0.89, 1.84, 1.84, 0.89, 0.89, 0.84, 0.79, 0.74, 0.69, 0.0, 0.0, 0.0, 0.0, -2.49, -2.49, -8.15, -8.15, -8.15, -8.15, -8.15, -7.86, -7.86, -8.19, -8.19, -8.19, -7.9, -7.9, -7.9, -8.22, -7.93, -7.61, -7.61, -7.33, -7.61, -7.33, -7.33, -6.96, -6.96, -6.94, -6.94, -6.53, -6.27, -6.27, -5.83, -5.62, -5.17, -5.17, -4.72, -4.54, -4.76, -4.76, -4.26, -4.08, -4.3, -3.77, -3.2, -3.07, -3.07, -3.07, -3.92, -3.6, -2.65, -1.69, -1.71, -1.73, -1.36, -1.58, -1.58, -1.75, -1.65, -1.65, -1.45, -0.69, -0.72, -0.76, 0.0, 0.0, 0.0, 0.0, 0.0, 0.0, 3.13, 2.68, 1.79, 1.79, 0.0, -2.24, -3.58, -4.3, -4.15, -3.91, -1.47, -0.76, 0.0, -0.66, -0.65, 0.0, 1.05, 1.84, 1.84, 0.93, 0.84, 0.0, 0.0, 0.0, 0.0, 0.0, 0.0, 0.0, -1.05, -1.4, -1.4, -1.4, -8.15, -8.15, -8.15, -8.15, -8.15, -7.86, -7.86, -7.86, -8.19, -8.19, -7.9, -7.9, -7.9, -8.22, -7.93, -7.61, -7.61, -7.61, -7.33, -7.61, -6.96, -6.96, -6.96, -6.96, -6.29, -6.29, -6.53, -5.86, -5.62, -5.62, -5.4, -5.2, -4.72, -4.54, -4.76, -4.26, -4.08, -4.3, -4.3, -3.77, -3.61, -3.61, -3.07, -3.07, -3.2, -3.33, -2.49, -1.75, -1.78, -1.69, -1.09, -1.18, -1.49, -1.49, -0.84, -0.84, -1.55, -1.45, -1.36, -0.72, -0.76, 0.0, 0.0, 0.0, 0.0, 0.0, 3.13, 2.68, 1.79, 1.34, 0.0, -2.24, -3.58, -4.3, -6.79, -7.28, -5.94, -3.11, 0.0, 0.94, 5.45, 7.19, 6.24, 4.38, 1.77, 0.89, 0.0, 0.0, 0.0, 0.0, 0.0, 0.0, 0.0, -0.99, -0.99, -2.46, -2.46, -2.46, -8.38, -8.38, -8.15, -8.15, -8.15, -7.86, -7.86, -7.86, -7.86, -7.86, -8.19, -7.9, -7.9, -7.6, -7.61, -7.61, -7.61, -7.61, -7.33, -6.97, -6.97, -6.7, -6.96, -6.96, -6.56, -6.29, -6.29, -5.86, -5.86, -5.86, -5.2, -5.2, -4.72, -4.54, -4.05, -4.26, -4.08, -4.3, -3.61, -3.61, -3.61, -3.61, -3.61, -3.07, -3.07, -3.07, -2.39, -2.28, -2.3, -1.67, -1.69, -1.71, -1.1, -1.28, -1.49, -0.84, -1.55, -1.45, -1.36, -1.36, -1.41, -0.76, 0.0, 0.0, 0.0, 0.0, 3.13, 1.34, 1.79, 1.34, 0.0, -2.24, -3.53, -5.16, -5.6, -4.73, -3.72, -2.44, 0.0, 4.65, 10.76, 11.14, 8.71, 4.75, 2.55, 0.93, 0.93, 0.0, 0.0, -0.83, -1.2, -0.78, -0.79, -1.84, -2.06, -2.33, -2.33, -2.33, -8.38, -8.38, -8.15, -8.15, -8.15, -7.86, -7.86, -7.86, -7.86, -7.86, -7.59, -7.6, -7.6, -7.6, -7.6, -7.32, -7.61, -7.61, -7.61, -7.33, -6.97, -6.97, -6.97, -6.31, -6.31, -6.56, -6.29, -5.86, -5.86, -5.2, -5.2, -5.2, -4.54, -4.54, -4.76, -4.08, -4.08, -4.3, -3.61, -3.61, -3.61, -3.61, -3.61, -3.61, -3.07, -3.07, -2.93, -2.28, -2.3, -2.3, -2.33, -1.69, -1.71, -1.73, -1.28, -0.79, -0.79, -1.55, -1.45, -1.36, -1.41, -1.6, -0.76, -0.81, 0.0, 0.0, 0.0, 1.34, 1.34, 0.89, -1.34, -2.12, -2.91, -3.07, -2.79, -1.61, -0.7, -0.84, 1.62, 6.7, 10.84, 10.17, 6.84, 3.93, 3.17, 1.7, 0.93, 0.0, 0.0, -1.33, -1.18, -1.35, -1.52, -1.55, -1.65, -2.67, -2.67, -2.67, -8.38, -8.38, -8.15, -8.15, -8.15, -7.86, -7.86, -7.86, -7.86, -7.59, -7.59, -7.59, -7.3, -7.6, -7.6, -7.6, -7.32, -7.32, -7.32, -7.26, -6.97, -6.97, -6.58, -6.31, -6.31, -6.31, -5.89, -5.64, -5.64, -5.2, -5.2, -5.0, -4.76, -4.76, -4.76, -4.08, -4.08, -4.08, -4.12, -3.61, -3.61, -3.61, -3.61, -3.65, -3.11, -3.11, -3.11, -2.28, -2.3, -2.3, -2.33, -2.21, -2.37, -1.71, -1.76, -1.4, -0.79, -0.79, -1.45, -2.12, -1.98, -2.04, -1.47, -0.7, -0.73, 0.0, 0.0, 0.0, 0.0, 0.0, -1.79, -2.24, -2.12, -1.86, -1.58, 0.0, 0.0, 1.03, 4.95, 7.42, 8.38, 6.8, 5.69, 5.42, 5.56, 2.39, 0.0, -0.89, -0.99, -1.47, -1.23, -1.94, -2.11, -2.2, -2.12, -2.12, -2.12, -2.12, -8.15, -8.15, -8.15, -8.15, -8.15, -7.86, -7.86, -7.86, -7.59, -7.59, -7.59, -7.59, -7.3, -7.3, -7.6, -7.6, -7.6, -7.32, -6.98, -6.98, -6.98, -6.71, -6.33, -6.33, -6.31, -6.31, -5.89, -5.89, -5.89, -5.2, -5.0, -5.23, -4.76, -4.76, -4.57, -4.57, -4.08, -4.12, -4.12, -3.61, -3.61, -3.45, -3.45, -3.65, -3.11, -3.11, -2.97, -2.97, -2.83, -2.3, -2.33, -2.33, -2.37, -2.23, -1.73, -1.76, -1.32, -1.45, -1.45, -1.36, -1.98, -2.04, -1.88, -1.35, -0.73, 0.0, 0.0, 0.0, 0.0, 0.0, 0.0, -1.34, -1.79, -1.79, 0.0, 0.0, 0.0, 2.21, 5.2, 6.4, 4.95, 3.91, 6.42, 8.5, 7.5, 3.53, 0.75, -0.78, -1.47, -1.47, -1.76, -2.48, -2.73, -2.8, -3.0, -3.47, -3.47, -3.47, -8.15, -8.15, -8.15, -8.15, -8.15, -8.15, -7.86, -7.86, -7.59, -7.59, -7.59, -7.59, -7.59, -7.3, -7.3, -7.3, -7.27, -6.98, -6.98, -6.98, -6.98, -6.33, -6.33, -6.33, -6.33, -5.67, -5.67, -5.67, -5.23, -5.23, -5.23, -5.23, -4.76, -4.57, -4.57, -4.57, -4.3, -4.12, -4.12, -4.12, -3.61, -3.45, -3.45, -3.65, -3.65, -3.11, -2.97, -2.97, -2.97, -2.83, -2.86, -2.86, -2.89, -2.89, -2.26, -2.26, -1.76, -1.23, -1.36, -1.36, -2.2, -2.04, -1.88, -1.94, -1.41, -0.98, 0.0, 0.0, 1.58, 1.79, 0.0, 0.0, -0.8, -0.8, -0.8, 0.0, 2.24, 2.12, 2.91, 3.49, 3.22, 3.91, 6.45, 7.82, 6.16, 3.53, -0.7, -1.6, -1.11, -0.67, -1.41, -1.94, -2.73, -3.72, -3.64, -3.55, -3.55, -3.55, -8.15, -8.15, -8.15, -8.15, -8.15, -8.15, -8.15, -7.59, -7.59, -7.59, -7.59, -7.59, -7.59, -7.59, -7.3, -6.98, -6.98, -6.98, -6.7, -6.98, -6.98, -6.61, -6.33, -6.33, -6.33, -5.92, -5.67, -5.67, -5.23, -5.23, -5.23, -5.23, -4.57, -4.57, -4.57, -4.6, -4.12, -4.12, -4.12, -4.12, -4.12, -3.45, -3.45, -3.65, -3.65, -2.97, -2.97, -2.97, -2.97, -2.83, -2.83, -2.86, -3.05, -2.92, -2.26, -2.26, -2.29, -1.65, -1.67, -1.26, -2.04, -2.04, -2.4, -2.66, -2.73, -2.0, -2.53, -1.2, 0.0, 0.0, 0.0, 0.0, 0.0, -0.8, -0.8, -0.0, 1.26, 1.6, 1.79, 1.9, 1.8, 2.98, 3.9, 3.69, 2.23, 0.0, 0.0, -1.6, -2.23, -1.76, -1.52, -2.35, -3.12, -3.43, -3.72, -3.72, -3.72, -3.72, -8.15, -8.15, -8.15, -8.15, -8.15, -8.15, -8.15, -7.88, -7.59, -7.59, -7.59, -7.59, -7.59, -7.28, -6.98, -6.98, -6.98, -6.98, -6.98, -6.7, -6.7, -6.61, -6.61, -6.33, -5.92, -5.92, -5.92, -5.67, -5.23, -5.23, -5.23, -5.02, -4.57, -4.57, -4.57, -4.6, -4.12, -4.12, -4.12, -4.12, -4.12, -3.94, -3.45, -3.65, -3.49, -2.97, -2.83, -2.97, -2.97, -2.83, -2.83, -2.86, -2.86, -3.09, -2.92, -2.92, -2.96, -2.29, -2.32, -1.84, -2.04, -2.04, -2.4, -3.12, -3.43, -3.07, -3.35, -2.97, -1.79, -1.2, -0.95, 0.0, 0.0, 0.0, -0.0, -0.0, -0.0, 1.0, 0.95, 0.8, 1.4, 1.84, 2.0, 0.73, -0.74, -1.51, -0.84, -1.33, -2.21, -2.84, -2.66, -3.09, -3.64, -3.48, -3.84, -4.19, -4.19, -4.19, -8.15, -8.15, -8.15, -8.15, -8.15, -8.15, -7.88, -7.88, -7.88, -7.59, -7.59, -7.27, -7.28, -7.28, -7.28, -6.98, -6.98, -6.98, -6.98, -6.98, -6.34, -6.34, -6.34, -6.34, -5.69, -5.69, -5.69, -5.69, -5.26, -5.02, -5.02, -5.02, -4.57, -4.57, -4.38, -4.6, -4.6, -4.12, -4.12, -4.12, -4.12, -4.35, -4.16, -3.65, -3.65, -3.49, -2.83, -2.83, -2.97, -2.97, -2.83, -3.01, -2.86, -3.09, -3.09, -3.14, -3.14, -2.96, -2.77, -2.32, -2.36, -2.6, -2.6, -3.38, -3.38, -4.46, -3.58, -3.39, -2.24, -2.23, -1.49, -1.9, -2.68, -1.2, -1.58, 0.0, -0.0, 1.0, 0.0, 0.0, 0.8, 1.4, 1.27, -1.63, -2.34, -2.35, -1.84, -1.83, -2.8, -3.07, -3.15, -3.47, -3.33, -3.48, -3.49, -4.15, -4.15, -4.15, -8.15, -8.15, -8.15, -8.15, -8.15, -8.15, -7.88, -7.88, -7.55, -7.55, -7.27, -7.27, -6.97, -6.97, -7.28, -7.28, -6.98, -6.98, -6.98, -6.98, -6.63, -6.34, -6.34, -6.34, -5.95, -5.69, -5.69, -5.69, -5.26, -5.26, -5.26, -5.26, -4.8, -4.8, -4.6, -4.6, -4.6, -4.12, -4.12, -4.12, -4.12, -4.16, -4.16, -4.16, -3.65, -3.7, -3.32, -3.32, -2.97, -2.97, -2.83, -2.83, -3.37, -3.37, -2.92, -3.14, -3.14, -3.14, -2.96, -3.0, -3.04, -2.54, -3.32, -3.32, -4.07, -4.43, -4.84, -4.8, -2.68, -2.68, -2.8, -3.2, -3.58, -2.54, -1.86, -1.26, -0.0, -0.95, -0.89, -0.63, 0.0, 0.0, 0.0, -0.77, -0.74, -0.77, -0.89, -2.66, -3.47, -3.39, -3.16, -4.29, -3.77, -3.35, -3.16, -4.24, -4.24, -4.24, -8.15, -8.15, -8.15, -8.15, -8.15, -7.88, -7.88, -7.55, -7.55, -7.55, -7.27, -7.27, -6.97, -6.97, -6.97, -6.97, -6.69, -6.98, -6.98, -6.63, -6.63, -6.63, -6.34, -6.34, -5.95, -5.95, -5.69, -5.69, -5.26, -5.26, -5.26, -5.26, -4.8, -4.6, -4.6, -4.6, -4.6, -4.6, -4.12, -4.12, -3.94, -4.16, -4.16, -4.16, -4.2, -4.2, -4.0, -3.52, -3.32, -3.49, -3.32, -3.32, -3.56, -3.37, -3.4, -3.64, -3.64, -3.64, -3.64, -3.68, -3.45, -3.26, -3.32, -3.32, -4.36, -4.74, -5.15, -5.05, -3.04, -2.68, -2.21, 0.0, -3.13, -3.13, -2.24, -2.24, -2.12, -2.24, -2.68, -2.12, -1.34, -1.26, 0.0, 0.0, 0.0, 0.0, 0.0, -1.99, -3.58, -3.82, -4.46, -4.46, -3.99, -3.22, -3.48, -4.92, -4.92, -4.92, -7.81, -7.81, -7.81, -8.15, -7.88, -7.55, -7.55, -7.55, -7.55, -7.55, -7.55, -6.97, -6.97, -6.97, -6.97, -6.97, -6.97, -6.69, -6.69, -6.35, -6.35, -6.63, -6.63, -6.34, -5.95, -5.7, -5.95, -5.69, -5.26, -5.26, -5.26, -5.26, -5.04, -4.6, -4.6, -4.6, -4.6, -4.6, -4.6, -4.4, -3.94, -4.16, -4.16, -4.16, -4.2, -4.2, -4.0, -4.0, -4.0, -3.49, -3.49, -3.52, -3.56, -3.37, -3.4, -3.4, -3.64, -3.64, -3.91, -3.68, -3.68, -3.97, -3.72, -4.02, -4.36, -4.36, -5.09, -5.82, -5.75, -3.82, -1.9, 0.0, -2.0, -3.13, -2.24, -1.79, -2.24, -3.13, -3.58, -3.13, -2.68, -2.53, -2.0, -0.73, 0.0, 0.0, 0.0, -0.88, -3.13, -4.02, -4.46, -4.58, -2.82, -3.45, -2.98, 0.0, 0.0, 0.0, -7.81, -7.81, -7.81, -7.55, -7.55, -7.55, -7.55, -7.55, -7.55, -7.55, -7.55, -6.97, -6.97, -6.97, -6.97, -6.97, -6.97, -6.97, -6.69, -6.35, -6.35, -6.35, -6.35, -6.08, -5.7, -5.7, -5.7, -5.7, -5.69, -5.26, -5.26, -5.04, -5.04, -5.04, -4.6, -4.6, -4.6, -4.6, -4.6, -4.4, -4.4, -4.63, -4.63, -4.42, -4.66, -4.66, -4.66, -4.44, -4.0, -4.2, -4.0, -3.35, -3.56, -3.37, -3.6, -3.4, -3.64, -3.64, -3.91, -4.36, -4.1, -4.1, -4.39, -4.29, -4.65, -5.06, -5.43, -5.82, -6.16, -4.34, -2.54, -2.0, -1.7, -3.04, -2.54, -1.79, -1.6, -2.68, -3.58, -4.02, -4.02, -3.82, -3.16, -2.8, -1.47, -0.71, 0.0, 0.0, -1.74, -3.13, -3.95, -3.22, -2.4, -3.68, -3.47, -2.84, -2.84, -2.84, -7.85, -7.85, -7.55, -7.55, -7.55, -7.55, -7.55, -7.55, -7.55, -7.55, -7.55, -6.97, -6.97, -6.97, -6.97, -6.97, -6.97, -6.97, -6.69, -6.35, -6.35, -6.35, -6.35, -6.35, -6.08, -5.7, -5.7, -5.7, -5.7, -5.04, -5.04, -5.04, -5.04, -5.04, -5.04, -4.6, -4.6, -4.6, -4.6, -4.4, -4.4, -4.63, -4.63, -4.42, -4.66, -4.66, -4.66, -4.44, -4.44, -4.0, -4.0, -4.03, -4.03, -3.81, -4.05, -3.83, -4.08, -4.08, -4.08, -4.36, -4.1, -4.1, -4.39, -4.71, -5.06, -5.06, -5.43, -5.43, -6.21, -5.2, -3.9, -2.6, -2.24, -2.6, -3.2, -3.13, -2.54, -2.6, -3.58, -3.97, -4.02, -3.98, -4.0, -4.07, -3.06, -1.54, -0.94, 0.0, 0.0, -1.13, -2.68, -3.13, -2.84, -2.4, -2.84, -2.21, -2.21, -2.21, -7.85, -7.85, -7.85, -7.55, -7.55, -7.55, -7.55, -7.55, -7.55, -7.55, -7.55, -6.97, -6.97, -6.97, -6.97, -6.97, -6.97, -6.97, -6.97, -6.35, -6.35, -6.35, -6.35, -6.35, -6.35, -5.7, -5.7, -5.7, -5.7, -5.7, -5.29, -5.04, -5.04, -5.04, -5.04, -5.04, -4.6, -4.6, -4.6, -4.4, -4.63, -4.63, -4.63, -4.42, -4.66, -4.66, -4.66, -4.66, -4.44, -4.44, -4.0, -4.03, -4.03, -3.81, -4.05, -4.05, -3.83, -4.08, -4.08, -4.36, -4.75, -4.75, -4.75, -4.75, -5.06, -5.06, -5.06, -5.77, -6.18, -6.7, -5.86, -3.07, -2.68, -2.24, -3.13, -4.47, -3.58, -2.68, -2.91, -3.39, -3.39, -4.02, -4.11, -4.43, -3.88, -2.51, -2.0, 0.0, 0.0, 0.0, -1.19, -2.8, -2.8, -1.4, 0.0, -2.53, -2.53, -2.53, -7.51, -7.51, -7.51, -7.85, -7.55, -7.55, -7.55, -7.55, -7.55, -7.55, -7.55, -7.55, -6.97, -6.97, -6.97, -6.97, -6.97, -6.97, -6.97, -6.97, -6.35, -6.35, -6.35, -6.35, -6.35, -6.35, -5.7, -5.7, -5.7, -5.7, -5.7, -5.7, -5.29, -5.29, -5.29, -5.29, -5.29, -5.29, -4.84, -4.63, -4.63, -4.63, -4.63, -4.42, -4.66, -4.66, -4.66, -4.66, -4.44, -4.44, -4.0, -4.03, -4.03, -4.28, -4.05, -4.05, -4.46, -4.47, -4.47, -4.75, -4.75, -4.75, -5.05, -5.05, -5.37, -5.72, -5.72, -5.72, -6.44, -6.44, -6.0, -3.07, -2.68, -4.02, 0.0, -3.13, -4.02, -2.17, -2.8, -3.32, -3.82, -4.02, -4.52, -5.09, -4.28, -2.51, -1.91, 0.0, 0.0, 0.0, 0.0, -1.52, 0.0, 0.0, 0.0, 0.0, 0.0, 0.0, -7.51, -7.51, -7.51, -7.51, -7.51, -7.23, -7.55, -7.55, -7.55, -7.55, -7.55, -7.55, -7.27, -6.97, -6.97, -6.97, -6.97, -6.97, -6.97, -6.97, -6.97, -6.35, -6.35, -6.35, -6.35, -6.35, -6.35, -5.98, -5.7, -5.7, -5.7, -5.7, -5.7, -5.29, -5.29, -5.29, -5.29, -5.29, -5.06, -5.06, -4.63, -4.63, -4.63, -4.42, -4.66, -4.66, -4.66, -4.66, -4.44, -4.44, -4.69, -4.45, -4.45, -4.71, -4.46, -4.46, -4.46, -4.73, -4.73, -4.75, -5.08, -5.08, -5.37, -5.37, -5.68, -6.0, -6.0, -6.06, -6.06, -6.08, -5.69, -5.02, -3.98, -4.02, 0.0, -2.24, -3.13, -2.4, -2.91, -3.39, -4.47, -4.47, -5.2, -5.69, -4.71, -3.25, -1.76, 0.0, 0.0, 0.0, 0.0, 0.0, 0.0, 0.0, 0.0, 0.0, 0.0, 0.0, -7.51, -7.51, -7.51, -7.51, -7.51, -7.23, -7.55, -7.55, -7.55, -7.55, -7.55, -7.55, -7.27, -6.97, -6.97, -6.97, -6.97, -6.97, -6.97, -6.97, -6.97, -6.35, -6.35, -6.35, -6.35, -6.35, -6.35, -5.98, -5.7, -5.7, -5.7, -5.7, -5.7, -5.29, -5.29, -5.29, -5.29, -5.29, -5.06, -5.06, -4.63, -4.63, -4.63, -4.42, -4.66, -4.66, -4.66, -4.66, -4.44, -4.44, -4.69, -4.45, -4.45, -4.71, -4.46, -4.46, -4.46, -4.73, -4.73, -4.75, -5.08, -5.08, -5.37, -5.37, -5.68, -6.0, -6.0, -6.06, -6.06, -6.08, -5.69, -5.02, -3.98, -4.02, 0.0, -2.24, -2.8, -2.4, -2.91, -3.39, -4.47, -4.92, -5.64, -6.07, -5.69, -4.0, -2.7, -0.98, 0.0, 0.0, 0.0, 1.16, 1.2, 1.07, 1.18, 1.25, 1.25, 1.25]}]